AFR97 KMCO-LFPG

Flight info

Callsign AFR97
Flight time 8h 50m
Altitude 37000
Route JEEMY4 PAINN SHRKS BERTT GURGE RAYVO Q87 NOWAE FAK BOOYA Q34 RBV Q22 LLUND BIZEX Q133 CAM BEEHS JIGZY TAFFY N693A NEEKO 5350N 5440N 5430N 5420N DOGAL BEXET MORAG NUCHU L18 MID Y803 SFD UM605 BIBAX
Aircraft A359/H-SDE2E3GHIJ3J4J5LM1ORWXY/LB1D1

Departure

Time 2026-04-25 11:58
Airport Orlando International Airport (KMCO)

Arrival

Time 2026-04-25 20:48
Airport Charles de Gaulle International Airport (LFPG)
Time Latitude Longitude Altitude Speed Heading
2026-04-25 10:42 28.41089 -81.31523 102 ft 0 kts 15°
2026-04-25 11:35 28.41088 -81.31523 101 ft 1 kts 15°
2026-04-25 11:35 28.41069 -81.31529 101 ft 1 kts 15°
2026-04-25 11:35 28.41046 -81.31536 100 ft 4 kts 27°
2026-04-25 11:35 28.41029 -81.31555 99 ft 3 kts 68°
2026-04-25 11:36 28.41016 -81.31578 100 ft 4 kts 24°
2026-04-25 11:36 28.40999 -81.31578 99 ft 4 kts 300°
2026-04-25 11:36 28.40995 -81.31550 97 ft 4 kts 270°
2026-04-25 11:36 28.40995 -81.31530 97 ft 0 kts 270°
2026-04-25 11:39 28.40995 -81.31560 101 ft 12 kts 271°
2026-04-25 11:39 28.40995 -81.31669 101 ft 15 kts 269°
2026-04-25 11:39 28.40994 -81.31787 103 ft 9 kts 270°
2026-04-25 11:40 28.40994 -81.31816 103 ft 0 kts 270°
2026-04-25 11:41 28.40995 -81.31852 103 ft 11 kts 272°
2026-04-25 11:41 28.41031 -81.31904 104 ft 8 kts 342°
2026-04-25 11:41 28.41086 -81.31909 105 ft 8 kts 358°
2026-04-25 11:41 28.41148 -81.31910 106 ft 10 kts 360°
2026-04-25 11:42 28.41225 -81.31910 104 ft 12 kts 360°
2026-04-25 11:42 28.41315 -81.31911 105 ft 14 kts 359°
2026-04-25 11:42 28.41422 -81.31911 106 ft 17 kts
2026-04-25 11:42 28.41532 -81.31925 106 ft 12 kts 321°
2026-04-25 11:43 28.41601 -81.31978 107 ft 13 kts 351°
2026-04-25 11:43 28.41696 -81.31981 105 ft 15 kts 360°
2026-04-25 11:43 28.41803 -81.31981 105 ft 16 kts 360°
2026-04-25 11:43 28.41923 -81.31983 105 ft 18 kts 359°
2026-04-25 11:44 28.42055 -81.31986 104 ft 20 kts 359°
2026-04-25 11:44 28.42198 -81.31986 105 ft 21 kts 359°
2026-04-25 11:44 28.42342 -81.31988 108 ft 20 kts 359°
2026-04-25 11:44 28.42481 -81.31989 108 ft 19 kts 359°
2026-04-25 11:45 28.42616 -81.31990 108 ft 20 kts 359°
2026-04-25 11:45 28.42758 -81.31992 106 ft 21 kts 359°
2026-04-25 11:45 28.42900 -81.31993 106 ft 21 kts 359°
2026-04-25 11:45 28.43026 -81.31995 105 ft 18 kts 359°
2026-04-25 11:46 28.43156 -81.31997 106 ft 20 kts 360°
2026-04-25 11:46 28.43282 -81.31998 105 ft 18 kts 359°
2026-04-25 11:46 28.43410 -81.32000 105 ft 19 kts 360°
2026-04-25 11:46 28.43527 -81.32001 106 ft 14 kts 360°
2026-04-25 11:47 28.43628 -81.32001 104 ft 16 kts 360°
2026-04-25 11:47 28.43742 -81.32003 107 ft 17 kts 359°
2026-04-25 11:47 28.43859 -81.32005 105 ft 17 kts 359°
2026-04-25 11:47 28.43983 -81.32006 105 ft 19 kts 359°
2026-04-25 11:48 28.44094 -81.32008 106 ft 14 kts 360°
2026-04-25 11:48 28.44191 -81.32008 105 ft 14 kts 359°
2026-04-25 11:48 28.44290 -81.32009 105 ft 11 kts 359°
2026-04-25 11:48 28.44377 -81.32010 104 ft 14 kts 359°
2026-04-25 11:49 28.44479 -81.32011 107 ft 13 kts 359°
2026-04-25 11:49 28.44546 -81.32011 105 ft 10 kts 359°
2026-04-25 11:49 28.44615 -81.32012 105 ft 7 kts 359°
2026-04-25 11:49 28.44617 -81.32012 106 ft 0 kts 359°
2026-04-25 11:51 28.44634 -81.32012 105 ft 0 kts 359°
2026-04-25 11:51 28.44643 -81.32012 105 ft 7 kts 359°
2026-04-25 11:52 28.44703 -81.32013 105 ft 10 kts 359°
2026-04-25 11:52 28.44781 -81.32017 105 ft 12 kts 347°
2026-04-25 11:52 28.44818 -81.32058 107 ft 12 kts 293°
2026-04-25 11:52 28.44823 -81.32101 106 ft 0 kts 270°
2026-04-25 11:56 28.44823 -81.32102 103 ft 1 kts 270°
2026-04-25 11:56 28.44819 -81.32188 105 ft 13 kts 255°
2026-04-25 11:57 28.44754 -81.32230 105 ft 11 kts 187°
2026-04-25 11:57 28.44725 -81.32230 104 ft 0 kts 178°
2026-04-25 11:57 28.44604 -81.32228 104 ft 51 kts 179°
2026-04-25 11:57 28.44013 -81.32223 107 ft 116 kts 179°
2026-04-25 11:58 28.43010 -81.32208 122 ft 169 kts 178°
2026-04-25 11:58 28.41870 -81.32187 899 ft 159 kts 179°
2026-04-25 11:58 28.40748 -81.32207 1477 ft 170 kts 185°
2026-04-25 11:58 28.39509 -81.32481 1743 ft 194 kts 198°
2026-04-25 11:59 28.38220 -81.33110 2165 ft 208 kts 206°
2026-04-25 11:59 28.36930 -81.33853 2653 ft 220 kts 207°
2026-04-25 11:59 28.35488 -81.34757 2957 ft 245 kts 214°
2026-04-25 12:00 28.33036 -81.37722 4144 ft 265 kts 231°
2026-04-25 12:00 28.31853 -81.39347 4931 ft 268 kts 231°
2026-04-25 12:00 28.29698 -81.42828 6458 ft 274 kts 253°
2026-04-25 12:01 28.29291 -81.44942 7281 ft 275 kts 262°
2026-04-25 12:01 28.29019 -81.47098 8159 ft 277 kts 263°
2026-04-25 12:01 28.28765 -81.49267 9049 ft 278 kts 265°
2026-04-25 12:01 28.28965 -81.51424 9907 ft 278 kts 290°
2026-04-25 12:02 28.31707 -81.54618 10800 ft 312 kts 337°
2026-04-25 12:02 28.33888 -81.55187 11100 ft 333 kts 351°
2026-04-25 12:02 28.36239 -81.55468 11558 ft 346 kts 353°
2026-04-25 12:03 28.38656 -81.55717 12250 ft 350 kts 353°
2026-04-25 12:03 28.41091 -81.55964 12977 ft 354 kts 353°
2026-04-25 12:03 28.43528 -81.56209 13660 ft 358 kts 353°
2026-04-25 12:03 28.46053 -81.56389 14279 ft 363 kts 358°
2026-04-25 12:04 28.48586 -81.56065 14869 ft 370 kts
2026-04-25 12:04 28.51069 -81.55390 15453 ft 375 kts 12°
2026-04-25 12:04 28.53596 -81.54618 15908 ft 377 kts 13°
2026-04-25 12:04 28.56144 -81.53816 16456 ft 382 kts 13°
2026-04-25 12:05 28.58715 -81.53001 17096 ft 386 kts 13°
2026-04-25 12:05 28.61311 -81.52174 17732 ft 390 kts 13°
2026-04-25 12:05 28.63936 -81.51337 18346 ft 394 kts 13°
2026-04-25 12:05 28.66589 -81.50490 18907 ft 397 kts 13°
2026-04-25 12:06 28.69260 -81.49635 19503 ft 400 kts 13°
2026-04-25 12:06 28.71943 -81.48777 20135 ft 402 kts 13°
2026-04-25 12:06 28.74645 -81.47911 20728 ft 405 kts 13°
2026-04-25 12:06 28.77370 -81.47038 21309 ft 408 kts 13°
2026-04-25 12:07 28.80113 -81.46159 21920 ft 412 kts 13°
2026-04-25 12:07 28.82881 -81.45271 22519 ft 415 kts 13°
2026-04-25 12:07 28.85673 -81.44375 23127 ft 418 kts 13°
2026-04-25 12:07 28.88490 -81.43471 23692 ft 422 kts 13°
2026-04-25 12:08 28.91322 -81.42561 24196 ft 425 kts 13°
2026-04-25 12:08 28.94197 -81.41718 24699 ft 426 kts
2026-04-25 12:08 28.97136 -81.41511 25198 ft 424 kts 354°
2026-04-25 12:08 29.00087 -81.41783 25672 ft 427 kts 353°
2026-04-25 12:09 29.03056 -81.42124 26148 ft 431 kts 353°
2026-04-25 12:09 29.06047 -81.42467 26647 ft 433 kts 353°
2026-04-25 12:09 29.09055 -81.42808 27136 ft 436 kts 353°
2026-04-25 12:09 29.12085 -81.43139 27610 ft 439 kts 354°
2026-04-25 12:10 29.15136 -81.43429 28066 ft 442 kts 354°
2026-04-25 12:10 29.18212 -81.43712 28548 ft 445 kts 354°
2026-04-25 12:10 29.21305 -81.43999 28999 ft 447 kts 354°
2026-04-25 12:10 29.24416 -81.44291 29445 ft 450 kts 354°
2026-04-25 12:11 29.27551 -81.44587 29891 ft 453 kts 355°
2026-04-25 12:11 29.30697 -81.44886 30260 ft 456 kts 355°
2026-04-25 12:11 29.33875 -81.45188 30608 ft 459 kts 355°
2026-04-25 12:11 29.37066 -81.45491 31023 ft 459 kts 355°
2026-04-25 12:12 29.40203 -81.45789 31946 ft 446 kts 355°
2026-04-25 12:12 29.42231 -81.45982 32569 ft 438 kts 354°
2026-04-25 12:12 29.46269 -81.46367 33368 ft 433 kts 354°
2026-04-25 12:12 29.49271 -81.46654 33774 ft 433 kts 354°
2026-04-25 12:13 29.52270 -81.46941 34153 ft 432 kts 354°
2026-04-25 12:13 29.55266 -81.47228 34520 ft 431 kts 354°
2026-04-25 12:13 29.58242 -81.47513 34920 ft 428 kts 354°
2026-04-25 12:13 29.61165 -81.47783 35294 ft 426 kts 355°
2026-04-25 12:14 29.64150 -81.48051 35668 ft 424 kts 355°
2026-04-25 12:14 29.67049 -81.48312 35988 ft 423 kts 355°
2026-04-25 12:14 29.69976 -81.48576 36311 ft 421 kts 354°
2026-04-25 12:14 29.72894 -81.48840 36615 ft 420 kts 354°
2026-04-25 12:15 29.75724 -81.49097 36889 ft 420 kts 354°
2026-04-25 12:15 29.78622 -81.49360 36971 ft 420 kts 354°
2026-04-25 12:15 29.84474 -81.49892 36981 ft 423 kts 354°
2026-04-25 12:16 29.90303 -81.50820 36978 ft 423 kts 345°
2026-04-25 12:16 29.95961 -81.52694 36976 ft 423 kts 342°
2026-04-25 12:17 30.01572 -81.54734 36972 ft 423 kts 342°
2026-04-25 12:17 30.07189 -81.56782 36972 ft 423 kts 342°
2026-04-25 12:18 30.12810 -81.58808 36978 ft 423 kts 342°
2026-04-25 12:18 30.18429 -81.60823 36980 ft 422 kts 342°
2026-04-25 12:19 30.26847 -81.63843 36982 ft 422 kts 342°
2026-04-25 12:20 30.32457 -81.65860 36986 ft 422 kts 342°
2026-04-25 12:20 30.38080 -81.67885 36965 ft 424 kts 342°
2026-04-25 12:21 30.43710 -81.69915 36961 ft 424 kts 342°
2026-04-25 12:21 30.49344 -81.71948 36962 ft 424 kts 342°
2026-04-25 12:22 30.54974 -81.73982 36961 ft 424 kts 342°
2026-04-25 12:22 30.60658 -81.75815 36965 ft 424 kts 349°
2026-04-25 12:23 30.66549 -81.76087 36967 ft 426 kts
2026-04-25 12:23 30.72455 -81.75458 36962 ft 426 kts
2026-04-25 12:24 30.78350 -81.74688 36960 ft 427 kts
2026-04-25 12:24 30.84250 -81.73918 36958 ft 427 kts
2026-04-25 12:25 30.90153 -81.73169 36960 ft 427 kts
2026-04-25 12:25 30.96057 -81.72429 36961 ft 428 kts
2026-04-25 12:26 31.02020 -81.71685 36956 ft 440 kts
2026-04-25 12:26 31.08191 -81.70913 36957 ft 452 kts
2026-04-25 12:27 31.14520 -81.70108 36953 ft 464 kts
2026-04-25 12:27 31.20846 -81.68343 36956 ft 470 kts 14°
2026-04-25 12:28 31.27098 -81.66111 36963 ft 470 kts 15°
2026-04-25 12:28 31.33334 -81.63804 36966 ft 469 kts 15°
2026-04-25 12:29 31.39558 -81.61505 36967 ft 469 kts 15°
2026-04-25 12:29 31.45777 -81.59221 36969 ft 469 kts 15°
2026-04-25 12:30 31.50992 -81.57308 36967 ft 469 kts 15°
2026-04-25 12:30 31.58227 -81.54652 36959 ft 469 kts 15°
2026-04-25 12:31 31.64444 -81.52365 36951 ft 469 kts 15°
2026-04-25 12:31 31.70670 -81.50071 36947 ft 469 kts 15°
2026-04-25 12:32 31.76897 -81.47774 36946 ft 469 kts 15°
2026-04-25 12:32 31.83122 -81.45474 36944 ft 469 kts 15°
2026-04-25 12:33 31.89354 -81.43168 36943 ft 470 kts 15°
2026-04-25 12:33 31.95591 -81.40857 36944 ft 470 kts 15°
2026-04-25 12:34 32.01827 -81.38543 36950 ft 470 kts 15°
2026-04-25 12:34 32.08062 -81.36226 36952 ft 470 kts 15°
2026-04-25 12:35 32.14305 -81.33904 36951 ft 471 kts 15°
2026-04-25 12:35 32.20555 -81.31575 36952 ft 471 kts 15°
2026-04-25 12:36 32.26806 -81.29242 36951 ft 471 kts 15°
2026-04-25 12:36 32.33055 -81.26904 36949 ft 470 kts 15°
2026-04-25 12:37 32.39296 -81.24569 36938 ft 470 kts 15°
2026-04-25 12:37 32.45521 -81.22155 36938 ft 472 kts 19°
2026-04-25 12:38 32.51249 -81.18319 36945 ft 477 kts 34°
2026-04-25 12:38 32.56472 -81.13448 36935 ft 479 kts 36°
2026-04-25 12:39 32.60746 -81.09263 36937 ft 480 kts 37°
2026-04-25 12:39 32.65888 -81.04206 36939 ft 480 kts 37°
2026-04-25 12:40 32.71047 -80.99159 36939 ft 480 kts 37°
2026-04-25 12:40 32.76210 -80.94121 36942 ft 480 kts 37°
2026-04-25 12:41 32.81376 -80.89076 36943 ft 480 kts 37°
2026-04-25 12:41 32.86521 -80.84044 36951 ft 479 kts 37°
2026-04-25 12:42 32.91670 -80.78998 36945 ft 479 kts 37°
2026-04-25 12:42 32.96813 -80.73950 36953 ft 479 kts 37°
2026-04-25 12:43 33.01958 -80.68892 36949 ft 479 kts 37°
2026-04-25 12:43 33.09670 -80.61295 36932 ft 479 kts 37°
2026-04-25 12:44 33.14810 -80.56221 36933 ft 480 kts 37°
2026-04-25 12:45 33.22505 -80.48612 36932 ft 478 kts 37°
2026-04-25 12:45 33.30161 -80.41025 36935 ft 478 kts 37°
2026-04-25 12:46 33.35299 -80.35923 36936 ft 479 kts 38°
2026-04-25 12:46 33.40421 -80.30827 36936 ft 479 kts 38°
2026-04-25 12:47 33.45546 -80.25720 36932 ft 479 kts 38°
2026-04-25 12:47 33.50670 -80.20606 36931 ft 479 kts 38°
2026-04-25 12:48 33.55788 -80.15491 36943 ft 479 kts 38°
2026-04-25 12:48 33.60911 -80.10362 36935 ft 480 kts 38°
2026-04-25 12:49 33.66335 -80.05739 36936 ft 477 kts 27°
2026-04-25 12:49 33.72203 -80.01999 36941 ft 477 kts 25°
2026-04-25 12:50 33.78132 -79.98406 36928 ft 477 kts 25°
2026-04-25 12:50 33.84075 -79.94817 36929 ft 479 kts 25°
2026-04-25 12:51 33.90026 -79.91200 36926 ft 480 kts 25°
2026-04-25 12:51 33.95988 -79.87556 36927 ft 480 kts 25°
2026-04-25 12:52 34.01909 -79.83930 36932 ft 480 kts 25°
2026-04-25 12:52 34.07866 -79.80276 36934 ft 481 kts 25°
2026-04-25 12:53 34.13829 -79.76613 36934 ft 481 kts 25°
2026-04-25 12:53 34.19798 -79.72947 36935 ft 481 kts 25°
2026-04-25 12:54 34.25764 -79.69271 36934 ft 481 kts 25°
2026-04-25 12:54 34.31727 -79.65587 36932 ft 482 kts 25°
2026-04-25 12:55 34.36701 -79.62513 36927 ft 483 kts 25°
2026-04-25 12:55 34.43704 -79.58187 36928 ft 484 kts 25°
2026-04-25 12:56 34.49691 -79.54470 36926 ft 484 kts 25°
2026-04-25 12:56 34.55684 -79.50744 36926 ft 484 kts 25°
2026-04-25 12:57 34.61618 -79.46845 36923 ft 486 kts 27°
2026-04-25 12:57 34.67513 -79.42809 36924 ft 486 kts 27°
2026-04-25 12:58 34.73409 -79.38795 36925 ft 485 kts 27°
2026-04-25 12:58 34.79302 -79.34795 36928 ft 485 kts 26°
2026-04-25 12:59 34.85202 -79.30791 36924 ft 486 kts 26°
2026-04-25 12:59 34.91106 -79.26783 36923 ft 486 kts 26°
2026-04-25 13:00 34.95025 -79.24118 36921 ft 486 kts 26°
2026-04-25 13:00 35.02923 -79.18738 36919 ft 486 kts 26°
2026-04-25 13:01 35.08837 -79.14703 36910 ft 487 kts 26°
2026-04-25 13:01 35.14753 -79.10661 36908 ft 488 kts 26°
2026-04-25 13:02 35.20672 -79.06608 36906 ft 488 kts 26°
2026-04-25 13:02 35.26592 -79.02547 36914 ft 487 kts 26°
2026-04-25 13:03 35.32468 -78.98511 36907 ft 488 kts 26°
2026-04-25 13:03 35.38419 -78.94416 36904 ft 488 kts 26°
2026-04-25 13:04 35.44335 -78.90341 36906 ft 488 kts 26°
2026-04-25 13:04 35.50211 -78.86288 36914 ft 488 kts 26°
2026-04-25 13:05 35.56123 -78.82195 36907 ft 488 kts 26°
2026-04-25 13:05 35.62035 -78.78098 36909 ft 488 kts 26°
2026-04-25 13:06 35.67944 -78.74000 36905 ft 488 kts 26°
2026-04-25 13:06 35.73856 -78.69885 36909 ft 488 kts 26°
2026-04-25 13:07 35.79774 -78.65761 36904 ft 489 kts 26°
2026-04-25 13:07 35.85695 -78.61630 36903 ft 489 kts 26°
2026-04-25 13:08 35.91611 -78.57496 36906 ft 488 kts 26°
2026-04-25 13:08 35.97515 -78.53361 36913 ft 489 kts 26°
2026-04-25 13:09 36.03443 -78.49204 36914 ft 490 kts 26°
2026-04-25 13:09 36.09372 -78.45039 36914 ft 490 kts 26°
2026-04-25 13:10 36.15295 -78.40871 36910 ft 490 kts 26°
2026-04-25 13:10 36.21224 -78.36690 36908 ft 491 kts 26°
2026-04-25 13:11 36.27163 -78.32497 36892 ft 492 kts 26°
2026-04-25 13:11 36.33104 -78.28293 36891 ft 492 kts 26°
2026-04-25 13:12 36.39224 -78.24605 36891 ft 485 kts 14°
2026-04-25 13:12 36.44564 -78.22490 36890 ft 484 kts 12°
2026-04-25 13:13 36.52131 -78.19748 36885 ft 484 kts 12°
2026-04-25 13:13 36.58611 -78.17432 36921 ft 485 kts 12°
2026-04-25 13:14 36.65088 -78.15096 36948 ft 485 kts 12°
2026-04-25 13:14 36.71570 -78.12741 36948 ft 486 kts 12°
2026-04-25 13:15 36.78055 -78.10378 36942 ft 486 kts 12°
2026-04-25 13:15 36.84542 -78.08010 36920 ft 486 kts 12°
2026-04-25 13:16 36.91031 -78.05638 36886 ft 486 kts 11°
2026-04-25 13:16 36.97540 -78.03256 36886 ft 487 kts 11°
2026-04-25 13:17 37.04043 -78.00871 36891 ft 487 kts 11°
2026-04-25 13:17 37.10554 -77.98477 36905 ft 487 kts 11°
2026-04-25 13:18 37.17075 -77.96076 36887 ft 489 kts 11°
2026-04-25 13:18 37.23598 -77.93670 36884 ft 488 kts 11°
2026-04-25 13:19 37.30100 -77.91268 36880 ft 487 kts 11°
2026-04-25 13:19 37.34405 -77.89675 36889 ft 487 kts 11°
2026-04-25 13:20 37.43107 -77.86451 36883 ft 488 kts 11°
2026-04-25 13:20 37.49615 -77.84033 36889 ft 488 kts 11°
2026-04-25 13:21 37.56038 -77.81147 36932 ft 492 kts 16°
2026-04-25 13:21 37.62345 -77.77889 36906 ft 494 kts 17°
2026-04-25 13:22 37.68690 -77.74538 36915 ft 495 kts 17°
2026-04-25 13:23 37.78219 -77.69498 36912 ft 495 kts 17°
2026-04-25 13:23 37.83534 -77.66690 36914 ft 495 kts 17°
2026-04-25 13:24 37.89890 -77.63330 36919 ft 495 kts 17°
2026-04-25 13:24 37.96196 -77.59989 36903 ft 495 kts 17°
2026-04-25 13:25 38.02574 -77.56602 36913 ft 493 kts 17°
2026-04-25 13:25 38.08855 -77.53260 36918 ft 492 kts 17°
2026-04-25 13:26 38.15168 -77.49897 36926 ft 492 kts 17°
2026-04-25 13:26 38.21487 -77.46525 36928 ft 492 kts 17°
2026-04-25 13:27 38.27845 -77.43123 36934 ft 493 kts 17°
2026-04-25 13:27 38.34170 -77.39734 36944 ft 493 kts 17°
2026-04-25 13:28 38.40275 -77.35610 36942 ft 505 kts 30°
2026-04-25 13:28 38.45445 -77.29404 36969 ft 514 kts 42°
2026-04-25 13:29 38.50217 -77.22590 36962 ft 516 kts 44°
2026-04-25 13:29 38.54926 -77.15682 36957 ft 514 kts 43°
2026-04-25 13:30 38.61992 -77.05381 36942 ft 513 kts 43°
2026-04-25 13:31 38.69043 -76.95142 36962 ft 514 kts 43°
2026-04-25 13:31 38.73801 -76.88215 36962 ft 514 kts 43°
2026-04-25 13:32 38.78487 -76.81382 36961 ft 513 kts 43°
2026-04-25 13:32 38.83186 -76.74508 36972 ft 512 kts 43°
2026-04-25 13:33 38.87873 -76.67629 36960 ft 512 kts 43°
2026-04-25 13:33 38.92566 -76.60729 36988 ft 513 kts 43°
2026-04-25 13:34 38.97254 -76.53825 36986 ft 513 kts 43°
2026-04-25 13:34 39.01933 -76.46918 36997 ft 512 kts 43°
2026-04-25 13:35 39.06599 -76.40015 36978 ft 511 kts 43°
2026-04-25 13:35 39.11261 -76.33104 36997 ft 511 kts 43°
2026-04-25 13:36 39.15919 -76.26185 37002 ft 511 kts 43°
2026-04-25 13:36 39.20571 -76.19259 37017 ft 511 kts 43°
2026-04-25 13:37 39.25221 -76.12319 37000 ft 511 kts 43°
2026-04-25 13:37 39.29851 -76.05403 36995 ft 508 kts 43°
2026-04-25 13:38 39.34399 -75.98582 36987 ft 508 kts 43°
2026-04-25 13:38 39.39000 -75.91669 36991 ft 508 kts 43°
2026-04-25 13:39 39.43614 -75.84723 37008 ft 508 kts 43°
2026-04-25 13:39 39.48221 -75.77773 37086 ft 510 kts 43°
2026-04-25 13:39 39.50522 -75.74294 37482 ft 507 kts 43°
2026-04-25 13:40 39.52803 -75.70839 37911 ft 504 kts 43°
2026-04-25 13:40 39.55074 -75.67397 38232 ft 503 kts 43°
2026-04-25 13:40 39.57345 -75.63953 38521 ft 502 kts 43°
2026-04-25 13:40 39.59613 -75.60512 38786 ft 501 kts 43°
2026-04-25 13:41 39.61873 -75.57080 38977 ft 501 kts 43°
2026-04-25 13:41 39.66392 -75.50204 39034 ft 500 kts 43°
2026-04-25 13:42 39.70663 -75.42938 39034 ft 505 kts 48°
2026-04-25 13:42 39.74702 -75.35473 39048 ft 504 kts 49°
2026-04-25 13:43 39.78764 -75.28051 39052 ft 503 kts 48°
2026-04-25 13:43 39.82866 -75.20676 39056 ft 503 kts 47°
2026-04-25 13:44 39.86979 -75.13314 39056 ft 503 kts 47°
2026-04-25 13:44 39.91089 -75.05943 39061 ft 503 kts 47°
2026-04-25 13:45 39.95161 -74.98615 39051 ft 502 kts 47°
2026-04-25 13:45 39.99221 -74.91199 39069 ft 504 kts 49°
2026-04-25 13:46 40.03084 -74.83576 39053 ft 505 kts 51°
2026-04-25 13:46 40.06920 -74.75892 39065 ft 505 kts 50°
2026-04-25 13:47 40.10777 -74.68235 39064 ft 505 kts 50°
2026-04-25 13:47 40.14651 -74.60582 39062 ft 504 kts 50°
2026-04-25 13:48 40.18531 -74.52962 39058 ft 502 kts 48°
2026-04-25 13:48 40.23216 -74.46412 39068 ft 488 kts 34°
2026-04-25 13:49 40.28405 -74.40703 39065 ft 486 kts 32°
2026-04-25 13:49 40.33648 -74.35136 39095 ft 485 kts 32°
2026-04-25 13:50 40.37083 -74.31489 39091 ft 483 kts 32°
2026-04-25 13:50 40.42288 -74.25926 39092 ft 482 kts 32°
2026-04-25 13:51 40.47486 -74.20341 39124 ft 483 kts 32°
2026-04-25 13:51 40.52668 -74.14753 39107 ft 481 kts 32°
2026-04-25 13:52 40.57841 -74.09173 39107 ft 481 kts 32°
2026-04-25 13:52 40.63008 -74.03582 39128 ft 481 kts 32°
2026-04-25 13:53 40.68171 -73.97977 39135 ft 480 kts 33°
2026-04-25 13:53 40.73306 -73.92390 39103 ft 478 kts 33°
2026-04-25 13:54 40.78423 -73.86817 39101 ft 477 kts 33°
2026-04-25 13:54 40.83557 -73.81257 39098 ft 475 kts 30°
2026-04-25 13:55 40.89183 -73.76989 39111 ft 461 kts 16°
2026-04-25 13:55 40.95167 -73.73937 39104 ft 460 kts 14°
2026-04-25 13:56 41.01188 -73.71085 39117 ft 460 kts 13°
2026-04-25 13:56 41.07210 -73.68245 39111 ft 460 kts 14°
2026-04-25 13:57 41.13237 -73.65372 39110 ft 461 kts 14°
2026-04-25 13:57 41.19251 -73.62483 39109 ft 459 kts 14°
2026-04-25 13:58 41.25249 -73.59597 39127 ft 457 kts 14°
2026-04-25 13:58 41.31376 -73.57736 39130 ft 448 kts
2026-04-25 13:59 41.37565 -73.56775 39128 ft 447 kts
2026-04-25 13:59 41.43757 -73.55956 39137 ft 447 kts
2026-04-25 14:00 41.49949 -73.55144 39099 ft 447 kts
2026-04-25 14:00 41.56125 -73.54316 39106 ft 446 kts
2026-04-25 14:01 41.62304 -73.53477 39103 ft 446 kts
2026-04-25 14:01 41.68485 -73.52635 39097 ft 446 kts
2026-04-25 14:02 41.74619 -73.51795 39096 ft 446 kts
2026-04-25 14:02 41.80802 -73.50949 39109 ft 446 kts
2026-04-25 14:03 41.86981 -73.50103 39102 ft 446 kts
2026-04-25 14:03 41.93151 -73.49256 39098 ft 446 kts
2026-04-25 14:04 41.98282 -73.48551 39093 ft 446 kts
2026-04-25 14:04 42.04447 -73.47701 39098 ft 446 kts
2026-04-25 14:05 42.10619 -73.46850 39084 ft 445 kts
2026-04-25 14:05 42.16783 -73.45998 39078 ft 446 kts
2026-04-25 14:06 42.22955 -73.45144 39090 ft 446 kts
2026-04-25 14:06 42.29125 -73.44286 39077 ft 446 kts
2026-04-25 14:07 42.35297 -73.43427 39082 ft 446 kts
2026-04-25 14:07 42.41464 -73.42568 39083 ft 446 kts
2026-04-25 14:08 42.47635 -73.41704 39082 ft 445 kts
2026-04-25 14:08 42.53802 -73.40841 39082 ft 445 kts
2026-04-25 14:09 42.59961 -73.39978 39082 ft 445 kts
2026-04-25 14:09 42.66121 -73.39112 39098 ft 444 kts
2026-04-25 14:10 42.72266 -73.38247 39098 ft 444 kts
2026-04-25 14:10 42.78406 -73.37382 39098 ft 444 kts
2026-04-25 14:11 42.84550 -73.36514 39107 ft 443 kts
2026-04-25 14:11 42.90673 -73.35646 39090 ft 442 kts
2026-04-25 14:12 42.96750 -73.34784 39092 ft 442 kts
2026-04-25 14:12 43.02871 -73.33956 39096 ft 441 kts 359°
2026-04-25 14:13 43.08982 -73.33339 39095 ft 440 kts 359°
2026-04-25 14:13 43.15090 -73.32755 39099 ft 440 kts 359°
2026-04-25 14:14 43.21203 -73.32140 39112 ft 440 kts 359°
2026-04-25 14:14 43.27313 -73.31505 39114 ft 441 kts 359°
2026-04-25 14:15 43.33426 -73.30863 39106 ft 440 kts 359°
2026-04-25 14:15 43.39541 -73.30221 39120 ft 441 kts 359°
2026-04-25 14:16 43.45642 -73.29576 39109 ft 438 kts 359°
2026-04-25 14:16 43.51712 -73.28937 39114 ft 437 kts 359°
2026-04-25 14:17 43.57773 -73.28300 39111 ft 437 kts 359°
2026-04-25 14:17 43.63833 -73.27662 39105 ft 437 kts 359°
2026-04-25 14:18 43.69896 -73.27021 39114 ft 437 kts 359°
2026-04-25 14:18 43.75961 -73.26376 39136 ft 437 kts 359°
2026-04-25 14:19 43.82019 -73.25732 39113 ft 436 kts 359°
2026-04-25 14:19 43.88081 -73.25086 39113 ft 438 kts 359°
2026-04-25 14:20 43.94181 -73.24341 39117 ft 443 kts
2026-04-25 14:20 44.00161 -73.21927 39112 ft 455 kts 18°
2026-04-25 14:21 44.05502 -73.17008 39115 ft 471 kts 36°
2026-04-25 14:21 44.09745 -73.09872 39133 ft 484 kts 47°
2026-04-25 14:22 44.13565 -73.02153 39119 ft 484 kts 48°
2026-04-25 14:22 44.17333 -72.94378 39142 ft 484 kts 48°
2026-04-25 14:23 44.21114 -72.86642 39146 ft 483 kts 47°
2026-04-25 14:23 44.24915 -72.78911 39154 ft 483 kts 47°
2026-04-25 14:24 44.28716 -72.71174 39160 ft 483 kts 47°
2026-04-25 14:24 44.32508 -72.63431 39150 ft 483 kts 47°
2026-04-25 14:25 44.36295 -72.55676 39145 ft 483 kts 47°
2026-04-25 14:25 44.40075 -72.47912 39145 ft 483 kts 47°
2026-04-25 14:26 44.43858 -72.40124 39146 ft 486 kts 47°
2026-04-25 14:26 44.47658 -72.32278 39143 ft 487 kts 47°
2026-04-25 14:27 44.51453 -72.24417 39143 ft 487 kts 47°
2026-04-25 14:27 44.55244 -72.16544 39147 ft 487 kts 48°
2026-04-25 14:28 44.59034 -72.08654 39149 ft 488 kts 48°
2026-04-25 14:28 44.62824 -72.00742 39147 ft 488 kts 48°
2026-04-25 14:29 44.66608 -71.92818 39144 ft 489 kts 49°
2026-04-25 14:29 44.70387 -71.84886 39147 ft 489 kts 49°
2026-04-25 14:30 44.74163 -71.76939 39155 ft 489 kts 49°
2026-04-25 14:30 44.79814 -71.65002 39156 ft 489 kts 49°
2026-04-25 14:31 44.83575 -71.57030 39154 ft 489 kts 49°
2026-04-25 14:31 44.87306 -71.49097 39158 ft 489 kts 50°
2026-04-25 14:32 44.91082 -71.41050 39151 ft 488 kts 50°
2026-04-25 14:32 44.94794 -71.33116 39158 ft 487 kts 50°
2026-04-25 14:33 44.98515 -71.25138 39152 ft 486 kts 50°
2026-04-25 14:33 45.02231 -71.17153 39153 ft 485 kts 50°
2026-04-25 14:34 45.05930 -71.09180 39152 ft 485 kts 50°
2026-04-25 14:34 45.09642 -71.01233 39148 ft 482 kts 48°
2026-04-25 14:35 45.13945 -70.94062 39150 ft 476 kts 41°
2026-04-25 14:35 45.18432 -70.87157 39150 ft 476 kts 41°
2026-04-25 14:36 45.22940 -70.80297 39145 ft 476 kts 41°
2026-04-25 14:36 45.27452 -70.73405 39164 ft 476 kts 41°
2026-04-25 14:37 45.31952 -70.66491 39157 ft 477 kts 41°
2026-04-25 14:37 45.36444 -70.59565 39143 ft 477 kts 41°
2026-04-25 14:38 45.40935 -70.52622 39142 ft 477 kts 41°
2026-04-25 14:38 45.45416 -70.45678 39142 ft 477 kts 42°
2026-04-25 14:39 45.49902 -70.38709 39146 ft 477 kts 42°
2026-04-25 14:39 45.54377 -70.31739 39140 ft 477 kts 42°
2026-04-25 14:40 45.58853 -70.24751 39135 ft 477 kts 42°
2026-04-25 14:40 45.63290 -70.17805 39135 ft 477 kts 42°
2026-04-25 14:41 45.67788 -70.10748 39132 ft 478 kts 43°
2026-04-25 14:41 45.72234 -70.03752 39132 ft 478 kts 43°
2026-04-25 14:42 45.75227 -69.99032 39136 ft 479 kts 43°
2026-04-25 14:42 45.81182 -69.89621 39135 ft 480 kts 43°
2026-04-25 14:43 45.85666 -69.82509 39127 ft 481 kts 44°
2026-04-25 14:43 45.90145 -69.75389 39123 ft 481 kts 44°
2026-04-25 14:44 45.94622 -69.68254 39124 ft 481 kts 44°
2026-04-25 14:44 45.99096 -69.61106 39124 ft 480 kts 44°
2026-04-25 14:45 46.03483 -69.54076 39129 ft 480 kts 44°
2026-04-25 14:45 46.07940 -69.46917 39129 ft 480 kts 44°
2026-04-25 14:46 46.12390 -69.39749 39132 ft 480 kts 44°
2026-04-25 14:46 46.16835 -69.32572 39143 ft 480 kts 44°
2026-04-25 14:47 46.19812 -69.27754 39144 ft 480 kts 44°
2026-04-25 14:47 46.25722 -69.18164 39149 ft 480 kts 44°
2026-04-25 14:48 46.30146 -69.10964 39146 ft 481 kts 45°
2026-04-25 14:48 46.34598 -69.03701 39132 ft 483 kts 45°
2026-04-25 14:49 46.39055 -68.96408 39137 ft 484 kts 45°
2026-04-25 14:49 46.43509 -68.89100 39127 ft 484 kts 45°
2026-04-25 14:50 46.47932 -68.81824 39138 ft 484 kts 45°
2026-04-25 14:50 46.52388 -68.74473 39128 ft 485 kts 45°
2026-04-25 14:51 46.56841 -68.67109 39125 ft 485 kts 45°
2026-04-25 14:51 46.61291 -68.59729 39125 ft 485 kts 46°
2026-04-25 14:52 46.65008 -68.53548 39124 ft 483 kts 46°
2026-04-25 14:52 46.68681 -68.47427 39117 ft 482 kts 46°
2026-04-25 14:53 46.73833 -68.38819 39109 ft 482 kts 46°
2026-04-25 14:53 46.78204 -68.31496 39120 ft 481 kts 46°
2026-04-25 14:54 46.82590 -68.24126 39103 ft 481 kts 46°
2026-04-25 14:54 46.86971 -68.16746 39093 ft 481 kts 46°
2026-04-25 14:55 46.91346 -68.09356 39091 ft 481 kts 46°
2026-04-25 14:55 46.95712 -68.01960 39097 ft 480 kts 47°
2026-04-25 14:56 47.00056 -67.94579 39094 ft 477 kts 47°
2026-04-25 14:56 47.04382 -67.87211 39093 ft 477 kts 47°
2026-04-25 14:57 47.08704 -67.79830 39094 ft 477 kts 47°
2026-04-25 14:57 47.13023 -67.72436 39100 ft 477 kts 47°
2026-04-25 14:58 47.17328 -67.65042 39095 ft 476 kts 47°
2026-04-25 14:58 47.21634 -67.57629 39095 ft 476 kts 47°
2026-04-25 14:59 47.25930 -67.50211 39083 ft 477 kts 47°
2026-04-25 14:59 47.30230 -67.42768 39089 ft 478 kts 47°
2026-04-25 15:00 47.34531 -67.35301 39083 ft 478 kts 47°
2026-04-25 15:00 47.38826 -67.27803 39083 ft 478 kts 48°
2026-04-25 15:01 47.42972 -67.20127 39085 ft 479 kts 49°
2026-04-25 15:01 47.47070 -67.12368 39087 ft 478 kts 50°
2026-04-25 15:02 47.51176 -67.04628 39085 ft 478 kts 49°
2026-04-25 15:02 47.55291 -66.96899 39080 ft 478 kts 49°
2026-04-25 15:03 47.59406 -66.89167 39080 ft 478 kts 49°
2026-04-25 15:03 47.63517 -66.81417 39079 ft 478 kts 50°
2026-04-25 15:04 47.67622 -66.73654 39083 ft 478 kts 50°
2026-04-25 15:04 47.71724 -66.65875 39081 ft 479 kts 50°
2026-04-25 15:05 47.75797 -66.58128 39078 ft 479 kts 50°
2026-04-25 15:06 47.81952 -66.46378 39076 ft 480 kts 50°
2026-04-25 15:06 47.86052 -66.38522 39075 ft 480 kts 50°
2026-04-25 15:07 47.90145 -66.30659 39068 ft 480 kts 50°
2026-04-25 15:07 47.94237 -66.22774 39067 ft 481 kts 50°
2026-04-25 15:08 47.98325 -66.14875 39060 ft 481 kts 50°
2026-04-25 15:08 48.02412 -66.06953 39061 ft 481 kts 51°
2026-04-25 15:09 48.06494 -65.99017 39050 ft 481 kts 51°
2026-04-25 15:09 48.12598 -65.87108 39047 ft 480 kts 51°
2026-04-25 15:10 48.16660 -65.79155 39049 ft 480 kts 51°
2026-04-25 15:10 48.20704 -65.71213 38936 ft 479 kts 51°
2026-04-25 15:11 48.22722 -65.67243 38719 ft 478 kts 51°
2026-04-25 15:11 48.24732 -65.63279 38445 ft 477 kts 51°
2026-04-25 15:11 48.26738 -65.59321 38157 ft 475 kts 51°
2026-04-25 15:12 48.30730 -65.51422 38037 ft 474 kts 51°
2026-04-25 15:12 48.32719 -65.47482 38036 ft 473 kts 51°
2026-04-25 15:12 48.35349 -65.42257 38037 ft 473 kts 51°
2026-04-25 15:13 48.42635 -65.27731 38033 ft 473 kts 51°
2026-04-25 15:14 48.46587 -65.19818 38037 ft 473 kts 51°
2026-04-25 15:14 48.50544 -65.11877 38034 ft 473 kts 51°
2026-04-25 15:15 48.54494 -65.03924 38035 ft 474 kts 51°
2026-04-25 15:15 48.58442 -64.95952 38053 ft 474 kts 51°
2026-04-25 15:16 48.62376 -64.87982 38036 ft 472 kts 51°
2026-04-25 15:16 48.68248 -64.76043 38038 ft 472 kts 51°
2026-04-25 15:17 48.74096 -64.64107 38040 ft 473 kts 51°
2026-04-25 15:18 48.78041 -64.56024 38032 ft 475 kts 52°
2026-04-25 15:18 48.83895 -64.43980 38033 ft 475 kts 51°
2026-04-25 15:19 48.86512 -64.38579 38034 ft 474 kts 52°
2026-04-25 15:19 48.91710 -64.27822 38035 ft 474 kts 52°
2026-04-25 15:20 48.95611 -64.19721 38025 ft 475 kts 51°
2026-04-25 15:20 48.99515 -64.11588 38018 ft 475 kts 52°
2026-04-25 15:21 49.03407 -64.03453 38025 ft 475 kts 52°
2026-04-25 15:21 49.07287 -63.95319 38011 ft 474 kts 52°
2026-04-25 15:22 49.11157 -63.87179 38007 ft 474 kts 52°
2026-04-25 15:22 49.15022 -63.79028 37994 ft 474 kts 52°
2026-04-25 15:23 49.18880 -63.70865 37990 ft 474 kts 52°
2026-04-25 15:23 49.22734 -63.62688 37993 ft 474 kts 52°
2026-04-25 15:24 49.26592 -63.54477 37990 ft 475 kts 52°
2026-04-25 15:24 49.29143 -63.49034 37977 ft 475 kts 52°
2026-04-25 15:25 49.34266 -63.38066 37979 ft 475 kts 52°
2026-04-25 15:25 49.38108 -63.29814 37979 ft 475 kts 52°
2026-04-25 15:26 49.41946 -63.21545 37983 ft 476 kts 52°
2026-04-25 15:26 49.45780 -63.13261 37981 ft 476 kts 53°
2026-04-25 15:27 49.49608 -63.04962 37975 ft 475 kts 51°
2026-04-25 15:28 49.54861 -62.93532 37983 ft 474 kts 53°
2026-04-25 15:28 49.59273 -62.83887 37974 ft 474 kts 53°
2026-04-25 15:29 49.63068 -62.75566 37973 ft 475 kts 53°
2026-04-25 15:29 49.66247 -62.68575 37955 ft 474 kts 53°
2026-04-25 15:30 49.69392 -62.61641 37969 ft 474 kts 53°
2026-04-25 15:30 49.73800 -62.51892 37953 ft 472 kts 53°
2026-04-25 15:31 49.77555 -62.43562 37954 ft 472 kts 53°
2026-04-25 15:31 49.81281 -62.35268 37943 ft 472 kts 53°
2026-04-25 15:32 49.85025 -62.26910 37929 ft 472 kts 53°
2026-04-25 15:32 49.88759 -62.18545 37923 ft 472 kts 53°
2026-04-25 15:33 49.94356 -62.05958 37910 ft 473 kts 53°
2026-04-25 15:33 49.98081 -61.97550 37905 ft 473 kts 53°
2026-04-25 15:34 50.01802 -61.89122 37896 ft 473 kts 53°
2026-04-25 15:34 50.04887 -61.82113 37914 ft 473 kts 53°
2026-04-25 15:35 50.11076 -61.67999 37918 ft 473 kts 53°
2026-04-25 15:36 50.16621 -61.55287 37898 ft 473 kts 54°
2026-04-25 15:36 50.20307 -61.46805 37899 ft 473 kts 54°
2026-04-25 15:37 50.23992 -61.38296 37897 ft 473 kts 54°
2026-04-25 15:37 50.27670 -61.29777 37893 ft 472 kts 54°
2026-04-25 15:38 50.31338 -61.21253 37894 ft 473 kts 54°
2026-04-25 15:38 50.35003 -61.12709 37899 ft 472 kts 54°
2026-04-25 15:39 50.38650 -61.04176 37894 ft 471 kts 54°
2026-04-25 15:39 50.42294 -60.95622 37896 ft 472 kts 54°
2026-04-25 15:40 50.45316 -60.88511 37898 ft 472 kts 54°
2026-04-25 15:40 50.49564 -60.78479 37902 ft 472 kts 55°
2026-04-25 15:41 50.53186 -60.69894 37901 ft 472 kts 55°
2026-04-25 15:41 50.56816 -60.61263 37898 ft 475 kts 55°
2026-04-25 15:42 50.60450 -60.52596 37902 ft 473 kts 55°
2026-04-25 15:42 50.64053 -60.43968 37902 ft 471 kts 55°
2026-04-25 15:43 50.67645 -60.35342 37906 ft 470 kts 55°
2026-04-25 15:43 50.71222 -60.26727 37894 ft 469 kts 55°
2026-04-25 15:44 50.74788 -60.18110 37894 ft 469 kts 56°
2026-04-25 15:44 50.78346 -60.09483 37895 ft 469 kts 56°
2026-04-25 15:45 50.81901 -60.00831 37897 ft 468 kts 55°
2026-04-25 15:45 50.84832 -59.93675 37897 ft 466 kts 55°
2026-04-25 15:46 50.88939 -59.83619 37884 ft 465 kts 55°
2026-04-25 15:46 50.92461 -59.74966 37882 ft 470 kts 55°
2026-04-25 15:47 50.96001 -59.66237 37887 ft 471 kts 55°
2026-04-25 15:47 50.99540 -59.57480 37887 ft 471 kts 55°
2026-04-25 15:48 51.03071 -59.48716 37867 ft 471 kts 55°
2026-04-25 15:48 51.06594 -59.39940 37870 ft 471 kts 55°
2026-04-25 15:49 51.10111 -59.31149 37870 ft 471 kts 56°
2026-04-25 15:49 51.13628 -59.22333 37873 ft 472 kts 56°
2026-04-25 15:50 51.17143 -59.13488 37874 ft 473 kts 56°
2026-04-25 15:50 51.20656 -59.04614 37866 ft 475 kts 56°
2026-04-25 15:51 51.23595 -58.97173 37850 ft 478 kts 56°
2026-04-25 15:51 51.27724 -58.86676 37852 ft 477 kts 56°
2026-04-25 15:52 51.31245 -58.77687 37848 ft 477 kts 56°
2026-04-25 15:52 51.34757 -58.68694 37856 ft 477 kts 56°
2026-04-25 15:53 51.38259 -58.59695 37838 ft 476 kts 57°
2026-04-25 15:53 51.41758 -58.50677 37832 ft 477 kts 57°
2026-04-25 15:54 51.45252 -58.41636 37838 ft 477 kts 57°
2026-04-25 15:54 51.48715 -58.32642 37840 ft 477 kts 57°
2026-04-25 15:55 51.52219 -58.23511 37843 ft 477 kts 57°
2026-04-25 15:55 51.55647 -58.14543 37828 ft 476 kts 57°
2026-04-25 15:56 51.59102 -58.05477 37825 ft 476 kts 57°
2026-04-25 15:56 51.62552 -57.96390 37857 ft 476 kts 58°
2026-04-25 15:57 51.66006 -57.87262 37829 ft 477 kts 58°
2026-04-25 15:57 51.69451 -57.78124 37825 ft 477 kts 58°
2026-04-25 15:58 51.72870 -57.69024 37815 ft 477 kts 58°
2026-04-25 15:58 51.76299 -57.59867 37813 ft 476 kts 58°
2026-04-25 15:59 51.79734 -57.50658 37821 ft 476 kts 58°
2026-04-25 15:59 51.83121 -57.41544 37825 ft 476 kts 58°
2026-04-25 16:00 51.85395 -57.35407 37834 ft 477 kts 58°
2026-04-25 16:00 51.89924 -57.23141 37820 ft 476 kts 59°
2026-04-25 16:01 51.93310 -57.13929 37830 ft 476 kts 59°
2026-04-25 16:01 51.96691 -57.04699 37825 ft 476 kts 59°
2026-04-25 16:02 52.00060 -56.95465 37839 ft 475 kts 59°
2026-04-25 16:02 52.03419 -56.86228 37839 ft 475 kts 59°
2026-04-25 16:03 52.06776 -56.76961 37825 ft 478 kts 59°
2026-04-25 16:03 52.10146 -56.67626 37835 ft 479 kts 59°
2026-04-25 16:04 52.13511 -56.58270 37835 ft 479 kts 59°
2026-04-25 16:04 52.16865 -56.48909 37839 ft 479 kts 59°
2026-04-25 16:05 52.20214 -56.39526 37841 ft 479 kts 59°
2026-04-25 16:06 52.25222 -56.25432 37832 ft 479 kts 59°
2026-04-25 16:06 52.28550 -56.16022 37821 ft 479 kts 59°
2026-04-25 16:07 52.31872 -56.06595 37817 ft 479 kts 59°
2026-04-25 16:07 52.35188 -55.97147 37812 ft 479 kts 60°
2026-04-25 16:08 52.37921 -55.87356 37815 ft 471 kts 72°
2026-04-25 16:08 52.39116 -55.76829 37837 ft 471 kts 81°
2026-04-25 16:09 52.39819 -55.66153 37811 ft 472 kts 83°
2026-04-25 16:09 52.40445 -55.55462 37793 ft 471 kts 82°
2026-04-25 16:10 52.41567 -55.44901 37800 ft 471 kts 77°
2026-04-25 16:10 52.42859 -55.34383 37748 ft 470 kts 77°
2026-04-25 16:11 52.44172 -55.23900 37738 ft 469 kts 77°
2026-04-25 16:11 52.45253 -55.15187 37750 ft 469 kts 77°
2026-04-25 16:12 52.46541 -55.04691 37727 ft 469 kts 77°
2026-04-25 16:12 52.47816 -54.94187 37732 ft 470 kts 77°
2026-04-25 16:13 52.49084 -54.83662 37718 ft 470 kts 77°
2026-04-25 16:13 52.50343 -54.73127 37706 ft 470 kts 77°
2026-04-25 16:14 52.51592 -54.62597 37705 ft 469 kts 77°
2026-04-25 16:14 52.52830 -54.52066 37704 ft 470 kts 78°
2026-04-25 16:15 52.54059 -54.41523 37699 ft 470 kts 78°
2026-04-25 16:15 52.55281 -54.30962 37706 ft 470 kts 78°
2026-04-25 16:16 52.56493 -54.20387 37689 ft 471 kts 78°
2026-04-25 16:16 52.57699 -54.09793 37674 ft 471 kts 78°
2026-04-25 16:17 52.58895 -53.99193 37678 ft 471 kts 78°
2026-04-25 16:17 52.60079 -53.88605 37681 ft 471 kts 78°
2026-04-25 16:18 52.61256 -53.77997 37673 ft 471 kts 79°
2026-04-25 16:18 52.62423 -53.67387 37673 ft 471 kts 79°
2026-04-25 16:19 52.63581 -53.56765 37673 ft 472 kts 79°
2026-04-25 16:19 52.64732 -53.46117 37654 ft 473 kts 79°
2026-04-25 16:20 52.66438 -53.30147 37653 ft 471 kts 79°
2026-04-25 16:21 52.68120 -53.14183 37644 ft 472 kts 79°
2026-04-25 16:21 52.69231 -53.03532 37644 ft 472 kts 79°
2026-04-25 16:22 52.70331 -52.92881 37631 ft 472 kts 79°
2026-04-25 16:22 52.71422 -52.82219 37652 ft 472 kts 80°
2026-04-25 16:23 52.72506 -52.71537 37635 ft 473 kts 80°
2026-04-25 16:23 52.73580 -52.60847 37624 ft 473 kts 80°
2026-04-25 16:24 52.74644 -52.50152 37623 ft 473 kts 80°
2026-04-25 16:24 52.75699 -52.39455 37623 ft 472 kts 80°
2026-04-25 16:25 52.76743 -52.28757 37610 ft 472 kts 80°
2026-04-25 16:25 52.77776 -52.18070 37611 ft 472 kts 80°
2026-04-25 16:26 52.78801 -52.07353 37611 ft 472 kts 80°
2026-04-25 16:26 52.79815 -51.96650 37597 ft 472 kts 80°
2026-04-25 16:27 52.80820 -51.85934 37601 ft 473 kts 81°
2026-04-25 16:27 52.81810 -51.75292 37602 ft 473 kts 81°
2026-04-25 16:28 52.82797 -51.64556 37602 ft 472 kts 81°
2026-04-25 16:28 52.83773 -51.53826 37604 ft 473 kts 81°
2026-04-25 16:29 52.84739 -51.43104 37591 ft 471 kts 81°
2026-04-25 16:29 52.85692 -51.32405 37595 ft 470 kts 81°
2026-04-25 16:30 52.86635 -51.21712 37594 ft 470 kts 81°
2026-04-25 16:30 52.87570 -51.11007 37591 ft 470 kts 81°
2026-04-25 16:31 52.88493 -51.00303 37589 ft 470 kts 81°
2026-04-25 16:31 52.89409 -50.89578 37590 ft 471 kts 81°
2026-04-25 16:32 52.90323 -50.78768 37586 ft 471 kts 82°
2026-04-25 16:32 52.91212 -50.68122 37584 ft 470 kts 82°
2026-04-25 16:33 52.92097 -50.57405 37589 ft 469 kts 82°
2026-04-25 16:33 52.92972 -50.46675 37578 ft 470 kts 82°
2026-04-25 16:34 52.93839 -50.35928 37573 ft 470 kts 82°
2026-04-25 16:34 52.94696 -50.25190 37567 ft 470 kts 82°
2026-04-25 16:35 52.95544 -50.14440 37565 ft 470 kts 82°
2026-04-25 16:35 52.96382 -50.03687 37574 ft 470 kts 82°
2026-04-25 16:36 52.97602 -49.93032 37560 ft 470 kts 77°
2026-04-25 16:36 52.99088 -49.82466 37568 ft 471 kts 76°
2026-04-25 16:37 53.00610 -49.71892 37567 ft 470 kts 76°
2026-04-25 16:37 53.02121 -49.61323 37566 ft 471 kts 77°
2026-04-25 16:38 53.03616 -49.50741 37562 ft 471 kts 77°
2026-04-25 16:38 53.05100 -49.40141 37562 ft 471 kts 77°
2026-04-25 16:39 53.06573 -49.29541 37573 ft 471 kts 77°
2026-04-25 16:39 53.08040 -49.18908 37561 ft 472 kts 77°
2026-04-25 16:40 53.09497 -49.08271 37563 ft 472 kts 77°
2026-04-25 16:40 53.10946 -48.97624 37555 ft 472 kts 77°
2026-04-25 16:41 53.12385 -48.86967 37567 ft 471 kts 78°
2026-04-25 16:41 53.14525 -48.70974 37561 ft 472 kts 78°
2026-04-25 16:42 53.15940 -48.60301 37565 ft 472 kts 78°
2026-04-25 16:42 53.17346 -48.49618 37558 ft 472 kts 78°
2026-04-25 16:43 53.18742 -48.38930 37556 ft 473 kts 78°
2026-04-25 16:43 53.20131 -48.28218 37563 ft 473 kts 78°
2026-04-25 16:44 53.21511 -48.17491 37570 ft 473 kts 78°
2026-04-25 16:44 53.22881 -48.06765 37561 ft 473 kts 78°
2026-04-25 16:45 53.24241 -47.96031 37565 ft 473 kts 78°
2026-04-25 16:45 53.25594 -47.85267 37566 ft 474 kts 78°
2026-04-25 16:46 53.26938 -47.74495 37557 ft 473 kts 79°
2026-04-25 16:46 53.27823 -47.67356 37563 ft 474 kts 79°
2026-04-25 16:47 53.29598 -47.52926 37562 ft 473 kts 79°
2026-04-25 16:47 53.30911 -47.42139 37562 ft 473 kts 79°
2026-04-25 16:48 53.32208 -47.31402 37564 ft 474 kts 79°
2026-04-25 16:48 53.33504 -47.20587 37561 ft 474 kts 79°
2026-04-25 16:49 53.34791 -47.09761 37566 ft 474 kts 79°
2026-04-25 16:49 53.36069 -46.98930 37574 ft 475 kts 79°
2026-04-25 16:50 53.37340 -46.88053 37568 ft 476 kts 79°
2026-04-25 16:50 53.38602 -46.77171 37573 ft 476 kts 80°
2026-04-25 16:51 53.39855 -46.66276 37571 ft 476 kts 80°
2026-04-25 16:51 53.40688 -46.58983 37569 ft 476 kts 80°
2026-04-25 16:52 53.42331 -46.44458 37585 ft 477 kts 80°
2026-04-25 16:52 53.43554 -46.33540 37571 ft 477 kts 80°
2026-04-25 16:53 53.45370 -46.17162 37574 ft 476 kts 80°
2026-04-25 16:54 53.46570 -46.06217 37570 ft 478 kts 81°
2026-04-25 16:54 53.47763 -45.95223 37568 ft 479 kts 81°
2026-04-25 16:55 53.48946 -45.84230 37569 ft 478 kts 81°
2026-04-25 16:55 53.50120 -45.73226 37580 ft 478 kts 81°
2026-04-25 16:56 53.51088 -45.64078 37578 ft 478 kts 81°
2026-04-25 16:56 53.52242 -45.53075 37580 ft 478 kts 81°
2026-04-25 16:57 53.53387 -45.42061 37580 ft 478 kts 81°
2026-04-25 16:57 53.54523 -45.31027 37591 ft 479 kts 81°
2026-04-25 16:58 53.55648 -45.19987 37594 ft 479 kts 82°
2026-04-25 16:58 53.56766 -45.08914 37583 ft 481 kts 82°
2026-04-25 16:59 53.57875 -44.97822 37593 ft 481 kts 82°
2026-04-25 16:59 53.58975 -44.86719 37595 ft 481 kts 82°
2026-04-25 17:00 53.60064 -44.75607 37617 ft 481 kts 82°
2026-04-25 17:00 53.61144 -44.64492 37598 ft 481 kts 82°
2026-04-25 17:01 53.62212 -44.53374 37605 ft 481 kts 82°
2026-04-25 17:01 53.63270 -44.42252 37604 ft 481 kts 82°
2026-04-25 17:02 53.64319 -44.31112 37606 ft 481 kts 83°
2026-04-25 17:02 53.65357 -44.19968 37599 ft 482 kts 83°
2026-04-25 17:03 53.66388 -44.08780 37617 ft 483 kts 83°
2026-04-25 17:03 53.67409 -43.97584 37617 ft 483 kts 83°
2026-04-25 17:04 53.68421 -43.86377 37624 ft 483 kts 83°
2026-04-25 17:04 53.69422 -43.75165 37616 ft 483 kts 83°
2026-04-25 17:05 53.70412 -43.63952 37619 ft 483 kts 83°
2026-04-25 17:05 53.71876 -43.47133 37628 ft 483 kts 83°
2026-04-25 17:06 53.72840 -43.35911 37638 ft 483 kts 84°
2026-04-25 17:06 53.73793 -43.24680 37636 ft 484 kts 84°
2026-04-25 17:07 53.74739 -43.13409 37636 ft 484 kts 84°
2026-04-25 17:07 53.75673 -43.02146 37645 ft 484 kts 84°
2026-04-25 17:08 53.76591 -42.90942 37644 ft 485 kts 84°
2026-04-25 17:08 53.77506 -42.79649 37651 ft 485 kts 84°
2026-04-25 17:09 53.78410 -42.68351 37645 ft 485 kts 84°
2026-04-25 17:09 53.79304 -42.57044 37658 ft 485 kts 84°
2026-04-25 17:10 53.80186 -42.45737 37658 ft 485 kts 84°
2026-04-25 17:10 53.81058 -42.34429 37664 ft 485 kts 84°
2026-04-25 17:11 53.81921 -42.23094 37664 ft 486 kts 85°
2026-04-25 17:11 53.82774 -42.11747 37672 ft 486 kts 85°
2026-04-25 17:12 53.83194 -42.06100 37672 ft 486 kts 85°
2026-04-25 17:12 53.83683 -41.99482 37671 ft 486 kts 85°
2026-04-25 17:13 53.84373 -41.90053 37672 ft 486 kts 85°
2026-04-25 17:13 53.85332 -41.76781 37662 ft 486 kts 85°
2026-04-25 17:14 53.86141 -41.65413 37678 ft 486 kts 85°
2026-04-25 17:14 53.86940 -41.54038 37688 ft 487 kts 85°
2026-04-25 17:15 53.87729 -41.42641 37686 ft 487 kts 85°
2026-04-25 17:15 53.88508 -41.31230 37694 ft 488 kts 86°
2026-04-25 17:16 53.89276 -41.19810 37692 ft 488 kts 86°
2026-04-25 17:16 53.90034 -41.08385 37705 ft 488 kts 86°
2026-04-25 17:17 53.90781 -40.96943 37704 ft 489 kts 86°
2026-04-25 17:17 53.91519 -40.85486 37715 ft 488 kts 86°
2026-04-25 17:18 53.92245 -40.74025 37709 ft 489 kts 86°
2026-04-25 17:18 53.92961 -40.62564 37715 ft 489 kts 86°
2026-04-25 17:19 53.93665 -40.51101 37717 ft 489 kts 86°
2026-04-25 17:19 53.94360 -40.39607 37721 ft 490 kts 86°
2026-04-25 17:20 53.95044 -40.28107 37722 ft 490 kts 87°
2026-04-25 17:20 53.95718 -40.16597 37721 ft 490 kts 87°
2026-04-25 17:21 53.96380 -40.05090 37719 ft 490 kts 87°
2026-04-25 17:21 53.97012 -39.93574 37720 ft 489 kts 88°
2026-04-25 17:22 53.97407 -39.83908 37727 ft 490 kts 89°
2026-04-25 17:22 53.97892 -39.70480 37731 ft 490 kts 89°
2026-04-25 17:23 53.98321 -39.58926 37730 ft 490 kts 89°
2026-04-25 17:23 53.98756 -39.47348 37738 ft 491 kts 89°
2026-04-25 17:24 53.99183 -39.35763 37743 ft 491 kts 89°
2026-04-25 17:24 53.99598 -39.24185 37738 ft 491 kts 89°
2026-04-25 17:25 54.00002 -39.12570 37755 ft 492 kts 89°
2026-04-25 17:25 54.00396 -39.00947 37754 ft 493 kts 89°
2026-04-25 17:26 54.00778 -38.89311 37752 ft 493 kts 89°
2026-04-25 17:26 54.01149 -38.77694 37758 ft 493 kts 90°
2026-04-25 17:27 54.01509 -38.66062 37758 ft 493 kts 90°
2026-04-25 17:27 54.01743 -38.58283 37764 ft 493 kts 90°
2026-04-25 17:28 54.02195 -38.42750 37765 ft 494 kts 90°
2026-04-25 17:28 54.02522 -38.31075 37771 ft 494 kts 90°
2026-04-25 17:29 54.02838 -38.19403 37774 ft 494 kts 90°
2026-04-25 17:29 54.03142 -38.07728 37782 ft 494 kts 90°
2026-04-25 17:30 54.03435 -37.96047 37775 ft 494 kts 90°
2026-04-25 17:30 54.03717 -37.84342 37785 ft 496 kts 90°
2026-04-25 17:31 54.03988 -37.72628 37786 ft 496 kts 91°
2026-04-25 17:31 54.04249 -37.60888 37789 ft 497 kts 91°
2026-04-25 17:32 54.04498 -37.49153 37795 ft 496 kts 91°
2026-04-25 17:32 54.04735 -37.37410 37797 ft 496 kts 91°
2026-04-25 17:33 54.04961 -37.25664 37802 ft 497 kts 91°
2026-04-25 17:33 54.05175 -37.13893 37803 ft 498 kts 91°
2026-04-25 17:34 54.05379 -37.02119 37808 ft 498 kts 91°
2026-04-25 17:34 54.05571 -36.90341 37804 ft 498 kts 91°
2026-04-25 17:35 54.05752 -36.78564 37818 ft 498 kts 91°
2026-04-25 17:35 54.05920 -36.66774 37810 ft 499 kts 91°
2026-04-25 17:36 54.06078 -36.54955 37822 ft 500 kts 91°
2026-04-25 17:36 54.06225 -36.43127 37825 ft 500 kts 91°
2026-04-25 17:37 54.06360 -36.31305 37826 ft 500 kts 91°
2026-04-25 17:37 54.06483 -36.19475 37833 ft 500 kts 92°
2026-04-25 17:38 54.06559 -36.11560 37828 ft 500 kts 92°
2026-04-25 17:38 54.06678 -35.97812 37833 ft 500 kts 91°
2026-04-25 17:39 54.06769 -35.85961 37836 ft 501 kts 92°
2026-04-25 17:39 54.06848 -35.74084 37838 ft 502 kts 92°
2026-04-25 17:40 54.06916 -35.62202 37840 ft 502 kts 92°
2026-04-25 17:40 54.06971 -35.50328 37837 ft 502 kts 92°
2026-04-25 17:41 54.07015 -35.38450 37837 ft 502 kts 92°
2026-04-25 17:41 54.07047 -35.26568 37846 ft 502 kts 92°
2026-04-25 17:42 54.07068 -35.14684 37853 ft 502 kts 92°
2026-04-25 17:42 54.07077 -35.02796 37842 ft 502 kts 92°
2026-04-25 17:43 54.07074 -34.90885 37854 ft 503 kts 92°
2026-04-25 17:43 54.07059 -34.78972 37861 ft 503 kts 92°
2026-04-25 17:44 54.07032 -34.67054 37860 ft 504 kts 92°
2026-04-25 17:44 54.06994 -34.55118 37859 ft 504 kts 92°
2026-04-25 17:45 54.06953 -34.45196 37867 ft 504 kts 92°
2026-04-25 17:45 54.06882 -34.31246 37867 ft 504 kts 93°
2026-04-25 17:46 54.06808 -34.19308 37867 ft 504 kts 93°
2026-04-25 17:46 54.06723 -34.07370 37849 ft 504 kts 93°
2026-04-25 17:47 54.06625 -33.95425 37868 ft 505 kts 93°
2026-04-25 17:47 54.06516 -33.83486 37873 ft 505 kts 93°
2026-04-25 17:48 54.06330 -33.65560 37875 ft 505 kts 93°
2026-04-25 17:49 54.06191 -33.53619 37866 ft 505 kts 94°
2026-04-25 17:49 54.06040 -33.41681 37879 ft 505 kts 93°
2026-04-25 17:50 54.05877 -33.29721 37874 ft 506 kts 94°
2026-04-25 17:50 54.05703 -33.17759 37879 ft 506 kts 94°
2026-04-25 17:51 54.05516 -33.05791 37880 ft 505 kts 94°
2026-04-25 17:51 54.05318 -32.93835 37887 ft 505 kts 94°
2026-04-25 17:52 54.05107 -32.81882 37890 ft 505 kts 94°
2026-04-25 17:52 54.04885 -32.69913 37898 ft 507 kts 94°
2026-04-25 17:53 54.04650 -32.57926 37885 ft 507 kts 94°
2026-04-25 17:53 54.04403 -32.45926 37891 ft 507 kts 94°
2026-04-25 17:54 54.04145 -32.33946 37892 ft 507 kts 94°
2026-04-25 17:54 54.03875 -32.21957 37893 ft 507 kts 94°
2026-04-25 17:55 54.03592 -32.09964 37908 ft 508 kts 94°
2026-04-25 17:55 54.03296 -31.97935 37904 ft 509 kts 94°
2026-04-25 17:56 54.02989 -31.85918 37905 ft 509 kts 94°
2026-04-25 17:56 54.02670 -31.73890 37918 ft 509 kts 94°
2026-04-25 17:57 54.02338 -31.61869 37900 ft 509 kts 95°
2026-04-25 17:57 54.01994 -31.49839 37911 ft 509 kts 95°
2026-04-25 17:58 54.01638 -31.37807 37901 ft 510 kts 95°
2026-04-25 17:58 54.01273 -31.25842 37910 ft 510 kts 95°
2026-04-25 17:59 54.00890 -31.13713 37916 ft 510 kts 95°
2026-04-25 17:59 54.00500 -31.01744 37917 ft 510 kts 95°
2026-04-25 18:00 54.00095 -30.89697 37919 ft 510 kts 95°
2026-04-25 18:00 53.99677 -30.77637 37924 ft 511 kts 95°
2026-04-25 18:01 53.99249 -30.65592 37926 ft 511 kts 95°
2026-04-25 18:01 53.98807 -30.53520 37925 ft 511 kts 95°
2026-04-25 18:02 53.98354 -30.41473 37920 ft 511 kts 95°
2026-04-25 18:02 53.97888 -30.29404 37928 ft 512 kts 95°
2026-04-25 18:03 53.97409 -30.17332 37928 ft 512 kts 95°
2026-04-25 18:03 53.96918 -30.05262 37933 ft 513 kts 95°
2026-04-25 18:04 53.96954 -29.93279 37936 ft 514 kts 88°
2026-04-25 18:04 53.97400 -29.81152 37938 ft 514 kts 87°
2026-04-25 18:05 53.97899 -29.69046 37937 ft 514 kts 87°
2026-04-25 18:05 53.98383 -29.56917 37938 ft 515 kts 87°
2026-04-25 18:06 53.98843 -29.44776 37938 ft 515 kts 87°
2026-04-25 18:06 53.99286 -29.32622 37935 ft 515 kts 88°
2026-04-25 18:07 53.99716 -29.20478 37937 ft 515 kts 88°
2026-04-25 18:07 54.00135 -29.08318 37939 ft 515 kts 88°
2026-04-25 18:08 54.00542 -28.96154 37941 ft 516 kts 88°
2026-04-25 18:08 54.00937 -28.83978 37941 ft 516 kts 88°
2026-04-25 18:09 54.01320 -28.71799 37941 ft 516 kts 88°
2026-04-25 18:09 54.01691 -28.59614 37947 ft 516 kts 88°
2026-04-25 18:10 54.02049 -28.47435 37944 ft 516 kts 88°
2026-04-25 18:10 54.02395 -28.35241 37944 ft 516 kts 88°
2026-04-25 18:11 54.02728 -28.23044 37944 ft 516 kts 88°
2026-04-25 18:11 54.03048 -28.10917 38195 ft 517 kts 88°
2026-04-25 18:11 54.03204 -28.04807 38618 ft 515 kts 89°
2026-04-25 18:12 54.03357 -27.98740 38974 ft 513 kts 89°
2026-04-25 18:12 54.03506 -27.92686 39253 ft 512 kts 89°
2026-04-25 18:12 54.03651 -27.86647 39501 ft 512 kts 89°
2026-04-25 18:12 54.03794 -27.80590 39748 ft 511 kts 89°
2026-04-25 18:13 54.03933 -27.74547 39917 ft 513 kts 89°
2026-04-25 18:13 54.04204 -27.62426 39953 ft 512 kts 89°
2026-04-25 18:14 54.04586 -27.44273 39949 ft 512 kts 89°
2026-04-25 18:14 54.04825 -27.32174 39949 ft 512 kts 89°
2026-04-25 18:15 54.05053 -27.20061 39952 ft 512 kts 89°
2026-04-25 18:15 54.05268 -27.07933 39955 ft 513 kts 89°
2026-04-25 18:16 54.05472 -26.95811 39955 ft 513 kts 89°
2026-04-25 18:17 54.05754 -26.77620 39951 ft 513 kts 90°
2026-04-25 18:17 54.05927 -26.65489 39954 ft 513 kts 90°
2026-04-25 18:18 54.06088 -26.53354 39956 ft 513 kts 90°
2026-04-25 18:18 54.06236 -26.41223 39959 ft 513 kts 90°
2026-04-25 18:19 54.06373 -26.29084 39954 ft 513 kts 90°
2026-04-25 18:19 54.06497 -26.16945 39955 ft 513 kts 90°
2026-04-25 18:20 54.06609 -26.04800 39955 ft 513 kts 90°
2026-04-25 18:20 54.06708 -25.92646 39958 ft 513 kts 90°
2026-04-25 18:21 54.06796 -25.80496 39959 ft 513 kts 90°
2026-04-25 18:21 54.06871 -25.68345 39956 ft 513 kts 90°
2026-04-25 18:22 54.06934 -25.56200 39961 ft 513 kts 91°
2026-04-25 18:22 54.06985 -25.44054 39963 ft 513 kts 91°
2026-04-25 18:23 54.07018 -25.33954 39961 ft 513 kts 91°
2026-04-25 18:23 54.07046 -25.21804 39960 ft 513 kts 91°
2026-04-25 18:24 54.07062 -25.09661 39965 ft 513 kts 91°
2026-04-25 18:24 54.07066 -24.97506 39963 ft 513 kts 91°
2026-04-25 18:25 54.07058 -24.85358 39963 ft 513 kts 91°
2026-04-25 18:25 54.07037 -24.73205 39963 ft 513 kts 91°
2026-04-25 18:26 54.07005 -24.61047 39971 ft 513 kts 91°
2026-04-25 18:26 54.06959 -24.48890 39968 ft 513 kts 91°
2026-04-25 18:27 54.06902 -24.36737 39954 ft 513 kts 92°
2026-04-25 18:27 54.06833 -24.24593 39966 ft 513 kts 92°
2026-04-25 18:28 54.06751 -24.12449 39972 ft 513 kts 92°
2026-04-25 18:28 54.06657 -24.00305 39974 ft 513 kts 92°
2026-04-25 18:29 54.06493 -23.82092 39972 ft 513 kts 92°
2026-04-25 18:30 54.06232 -23.57807 39977 ft 513 kts 92°
2026-04-25 18:30 54.06083 -23.45671 39977 ft 513 kts 92°
2026-04-25 18:31 54.05921 -23.33529 39977 ft 513 kts 93°
2026-04-25 18:31 54.05748 -23.21400 39976 ft 513 kts 93°
2026-04-25 18:32 54.05563 -23.09270 39968 ft 512 kts 93°
2026-04-25 18:32 54.05365 -22.97162 39977 ft 512 kts 93°
2026-04-25 18:33 54.05155 -22.85044 39978 ft 512 kts 93°
2026-04-25 18:33 54.04934 -22.72944 39978 ft 512 kts 94°
2026-04-25 18:34 54.04700 -22.60837 39985 ft 512 kts 94°
2026-04-25 18:34 54.04454 -22.48742 39982 ft 512 kts 94°
2026-04-25 18:35 54.04198 -22.36732 39984 ft 511 kts 94°
2026-04-25 18:35 54.03927 -22.24639 39987 ft 511 kts 94°
2026-04-25 18:36 54.03645 -22.12561 39983 ft 511 kts 94°
2026-04-25 18:36 54.03351 -22.00458 39986 ft 511 kts 94°
2026-04-25 18:37 54.03044 -21.88372 39991 ft 511 kts 94°
2026-04-25 18:37 54.02726 -21.76295 39993 ft 511 kts 94°
2026-04-25 18:38 54.02395 -21.64203 39996 ft 511 kts 94°
2026-04-25 18:38 54.02053 -21.52132 39998 ft 511 kts 95°
2026-04-25 18:39 54.01698 -21.40061 39999 ft 511 kts 95°
2026-04-25 18:39 54.01331 -21.27987 39998 ft 511 kts 95°
2026-04-25 18:40 54.00952 -21.15920 39999 ft 511 kts 95°
2026-04-25 18:40 54.00562 -21.03861 40004 ft 511 kts 95°
2026-04-25 18:41 54.00159 -20.91795 40006 ft 511 kts 95°
2026-04-25 18:41 53.99744 -20.79750 40013 ft 511 kts 95°
2026-04-25 18:42 53.99390 -20.69738 40009 ft 510 kts 95°
2026-04-25 18:42 53.98879 -20.55656 40015 ft 510 kts 96°
2026-04-25 18:43 53.98428 -20.43631 40019 ft 510 kts 96°
2026-04-25 18:43 53.97966 -20.31602 40020 ft 510 kts 96°
2026-04-25 18:44 53.97492 -20.19573 40020 ft 510 kts 96°
2026-04-25 18:44 53.97006 -20.07559 40028 ft 510 kts 96°
2026-04-25 18:45 53.96796 -19.95590 40030 ft 512 kts 91°
2026-04-25 18:45 53.96983 -19.83506 40031 ft 512 kts 90°
2026-04-25 18:46 53.97219 -19.71421 40031 ft 512 kts 90°
2026-04-25 18:46 53.97447 -19.59338 40037 ft 512 kts 90°
2026-04-25 18:47 53.97655 -19.47255 40043 ft 512 kts 90°
2026-04-25 18:47 53.97847 -19.35166 40042 ft 512 kts 90°
2026-04-25 18:48 53.98025 -19.23090 40041 ft 512 kts 91°
2026-04-25 18:48 53.98192 -19.11007 40043 ft 511 kts 91°
2026-04-25 18:49 53.98347 -18.98942 40053 ft 511 kts 91°
2026-04-25 18:49 53.98490 -18.86872 40058 ft 511 kts 91°
2026-04-25 18:50 53.98620 -18.74809 40057 ft 511 kts 91°
2026-04-25 18:50 53.98739 -18.62736 40065 ft 511 kts 91°
2026-04-25 18:51 53.98828 -18.52714 40052 ft 510 kts 91°
2026-04-25 18:51 53.98940 -18.38625 40066 ft 510 kts 91°
2026-04-25 18:52 53.99022 -18.26570 40067 ft 510 kts 92°
2026-04-25 18:52 53.99092 -18.14519 40057 ft 510 kts 92°
2026-04-25 18:53 53.99150 -18.02500 40075 ft 510 kts 92°
2026-04-25 18:53 53.99196 -17.90441 40073 ft 510 kts 92°
2026-04-25 18:54 53.99242 -17.72363 40078 ft 510 kts 92°
2026-04-25 18:55 53.99258 -17.60317 40070 ft 510 kts 92°
2026-04-25 18:55 53.99262 -17.48267 40084 ft 510 kts 92°
2026-04-25 18:56 53.99254 -17.36217 40087 ft 510 kts 92°
2026-04-25 18:56 53.99234 -17.24239 40094 ft 510 kts 93°
2026-04-25 18:57 53.99202 -17.12332 40094 ft 510 kts 93°
2026-04-25 18:57 53.99158 -17.00196 40096 ft 510 kts 93°
2026-04-25 18:58 53.99102 -16.88148 40095 ft 510 kts 93°
2026-04-25 18:58 53.98995 -16.70165 40105 ft 510 kts 93°
2026-04-25 18:59 53.98810 -16.46064 40105 ft 510 kts 94°
2026-04-25 19:00 53.98640 -16.28000 40119 ft 510 kts 94°
2026-04-25 19:01 53.98443 -16.09921 40116 ft 510 kts 94°
2026-04-25 19:01 53.98297 -15.97891 40112 ft 510 kts 94°
2026-04-25 19:02 53.98054 -15.79825 40112 ft 510 kts 94°
2026-04-25 19:03 53.97847 -15.65750 40124 ft 510 kts 94°
2026-04-25 19:03 53.97590 -15.49718 40127 ft 510 kts 94°
2026-04-25 19:04 53.97276 -15.31656 40129 ft 510 kts 94°
2026-04-25 19:05 53.97597 -15.19616 40137 ft 513 kts 83°
2026-04-25 19:05 53.98932 -15.07683 40137 ft 515 kts 80°
2026-04-25 19:06 53.99991 -14.95691 40134 ft 512 kts 88°
2026-04-25 19:06 54.00189 -14.77600 40138 ft 510 kts 93°
2026-04-25 19:07 54.00120 -14.59505 40140 ft 510 kts 92°
2026-04-25 19:08 54.00104 -14.41415 40147 ft 510 kts 92°
2026-04-25 19:09 54.00078 -14.21280 40158 ft 510 kts 92°
2026-04-25 19:10 53.99931 -14.01253 40161 ft 508 kts 98°
2026-04-25 19:10 53.98891 -13.89415 40153 ft 506 kts 103°
2026-04-25 19:11 53.97619 -13.77667 40148 ft 506 kts 103°
2026-04-25 19:11 53.96300 -13.65933 40156 ft 506 kts 103°
2026-04-25 19:12 53.94983 -13.54207 40161 ft 506 kts 103°
2026-04-25 19:12 53.93663 -13.42471 40162 ft 506 kts 103°
2026-04-25 19:13 53.92335 -13.30740 40167 ft 506 kts 103°
2026-04-25 19:13 53.90996 -13.19030 40165 ft 506 kts 103°
2026-04-25 19:14 53.89645 -13.07321 40174 ft 506 kts 103°
2026-04-25 19:14 53.88282 -12.95618 40173 ft 506 kts 103°
2026-04-25 19:15 53.86909 -12.83926 40173 ft 506 kts 104°
2026-04-25 19:15 53.85533 -12.72325 40176 ft 506 kts 104°
2026-04-25 19:16 53.84137 -12.60650 40175 ft 506 kts 104°
2026-04-25 19:16 53.82730 -12.48988 40178 ft 506 kts 104°
2026-04-25 19:17 53.81312 -12.37333 40181 ft 506 kts 104°
2026-04-25 19:17 53.79882 -12.25682 40184 ft 506 kts 104°
2026-04-25 19:18 53.78441 -12.14043 40184 ft 506 kts 104°
2026-04-25 19:18 53.76989 -12.02416 40183 ft 506 kts 104°
2026-04-25 19:19 53.75525 -11.90788 40184 ft 506 kts 104°
2026-04-25 19:19 53.74051 -11.79179 40186 ft 506 kts 104°
2026-04-25 19:20 53.72565 -11.67574 40189 ft 505 kts 104°
2026-04-25 19:21 53.69587 -11.44596 40181 ft 506 kts 104°
2026-04-25 19:21 53.67314 -11.27300 40192 ft 506 kts 104°
2026-04-25 19:22 53.65778 -11.15723 40193 ft 506 kts 104°
2026-04-25 19:23 53.63453 -10.98383 40198 ft 506 kts 104°
2026-04-25 19:23 53.61101 -10.81053 40198 ft 506 kts 105°
2026-04-25 19:24 53.59521 -10.69519 40198 ft 506 kts 105°
2026-04-25 19:25 53.56327 -10.46476 40199 ft 506 kts 105°
2026-04-25 19:25 53.54714 -10.34971 40195 ft 506 kts 105°
2026-04-25 19:26 53.53088 -10.23459 40200 ft 506 kts 105°
2026-04-25 19:26 53.51451 -10.11961 40206 ft 506 kts 105°
2026-04-25 19:27 53.50082 -10.02409 40205 ft 506 kts 105°
2026-04-25 19:27 53.48176 -9.89206 40202 ft 506 kts 105°
2026-04-25 19:28 53.46495 -9.77656 40207 ft 506 kts 105°
2026-04-25 19:28 53.44826 -9.66273 40202 ft 505 kts 105°
2026-04-25 19:29 53.43138 -9.54836 40200 ft 505 kts 105°
2026-04-25 19:29 53.41438 -9.43414 40190 ft 505 kts 105°
2026-04-25 19:30 53.39738 -9.32068 40183 ft 505 kts 105°
2026-04-25 19:30 53.38015 -9.20650 40178 ft 505 kts 105°
2026-04-25 19:31 53.36287 -9.09274 40193 ft 504 kts 105°
2026-04-25 19:31 53.34546 -8.97900 40192 ft 504 kts 106°
2026-04-25 19:32 53.32804 -8.86593 40189 ft 504 kts 106°
2026-04-25 19:32 53.31332 -8.77105 40181 ft 504 kts 106°
2026-04-25 19:33 53.29262 -8.63849 40184 ft 504 kts 106°
2026-04-25 19:33 53.27480 -8.52525 40177 ft 504 kts 106°
2026-04-25 19:34 53.25688 -8.41218 40174 ft 504 kts 106°
2026-04-25 19:34 53.23885 -8.29915 40180 ft 504 kts 106°
2026-04-25 19:35 53.22086 -8.18709 40173 ft 504 kts 106°
2026-04-25 19:35 53.20261 -8.07418 40173 ft 504 kts 106°
2026-04-25 19:36 53.18419 -7.96104 40171 ft 504 kts 107°
2026-04-25 19:36 53.16581 -7.84880 40176 ft 504 kts 107°
2026-04-25 19:37 53.14725 -7.73624 40173 ft 504 kts 107°
2026-04-25 19:37 53.12859 -7.62388 40174 ft 503 kts 107°
2026-04-25 19:38 53.10984 -7.51163 40179 ft 503 kts 107°
2026-04-25 19:38 53.09102 -7.39973 40177 ft 503 kts 107°
2026-04-25 19:39 53.07208 -7.28781 40177 ft 503 kts 107°
2026-04-25 19:39 53.05303 -7.17602 40177 ft 502 kts 107°
2026-04-25 19:40 53.03388 -7.06428 40179 ft 502 kts 107°
2026-04-25 19:40 53.01465 -6.95285 40185 ft 502 kts 107°
2026-04-25 19:41 52.99533 -6.84152 40188 ft 502 kts 107°
2026-04-25 19:41 52.98249 -6.76794 40187 ft 502 kts 107°
2026-04-25 19:42 52.95650 -6.61997 40196 ft 502 kts 107°
2026-04-25 19:42 52.93687 -6.50892 40195 ft 501 kts 108°
2026-04-25 19:43 52.91719 -6.39839 40197 ft 500 kts 108°
2026-04-25 19:43 52.89740 -6.28786 40198 ft 500 kts 108°
2026-04-25 19:44 52.87751 -6.17744 40209 ft 500 kts 108°
2026-04-25 19:44 52.85752 -6.06715 40209 ft 500 kts 108°
2026-04-25 19:45 52.83743 -5.95698 40199 ft 500 kts 108°
2026-04-25 19:45 52.81723 -5.84686 40209 ft 500 kts 108°
2026-04-25 19:46 52.79696 -5.73697 40213 ft 500 kts 108°
2026-04-25 19:46 52.77657 -5.62712 40210 ft 500 kts 108°
2026-04-25 19:47 52.75565 -5.51806 40213 ft 499 kts 112°
2026-04-25 19:47 52.72648 -5.41445 40214 ft 498 kts 118°
2026-04-25 19:48 52.69490 -5.31279 40213 ft 498 kts 119°
2026-04-25 19:48 52.66292 -5.21165 40216 ft 498 kts 119°
2026-04-25 19:49 52.64152 -5.14401 40211 ft 498 kts 119°
2026-04-25 19:49 52.59894 -5.00940 40217 ft 498 kts 119°
2026-04-25 19:50 52.55090 -4.85811 40212 ft 497 kts 119°
2026-04-25 19:51 52.51881 -4.75763 40212 ft 497 kts 119°
2026-04-25 19:51 52.48660 -4.65716 40214 ft 497 kts 119°
2026-04-25 19:52 52.45432 -4.55691 40228 ft 497 kts 119°
2026-04-25 19:52 52.42193 -4.45674 40210 ft 497 kts 119°
2026-04-25 19:53 52.38948 -4.35678 40222 ft 498 kts 119°
2026-04-25 19:53 52.35689 -4.25679 40221 ft 498 kts 120°
2026-04-25 19:54 52.32425 -4.15705 40222 ft 498 kts 120°
2026-04-25 19:54 52.29153 -4.05748 40220 ft 498 kts 120°
2026-04-25 19:55 52.25868 -3.95791 40225 ft 498 kts 120°
2026-04-25 19:55 52.22602 -3.85932 40225 ft 497 kts 120°
2026-04-25 19:56 52.19310 -3.76033 40221 ft 497 kts 120°
2026-04-25 19:56 52.16006 -3.66138 40220 ft 497 kts 120°
2026-04-25 19:57 52.12691 -3.56250 40222 ft 497 kts 120°
2026-04-25 19:57 52.09371 -3.46386 40217 ft 497 kts 120°
2026-04-25 19:58 52.06043 -3.36537 40219 ft 497 kts 120°
2026-04-25 19:58 52.02710 -3.26711 40222 ft 497 kts 120°
2026-04-25 19:59 51.99366 -3.16892 40228 ft 497 kts 120°
2026-04-25 19:59 51.96014 -3.07089 40241 ft 497 kts 120°
2026-04-25 20:00 51.92652 -2.97295 40248 ft 498 kts 120°
2026-04-25 20:00 51.89277 -2.87504 40253 ft 498 kts 120°
2026-04-25 20:01 51.84207 -2.72862 40220 ft 497 kts 120°
2026-04-25 20:01 51.80820 -2.63130 40212 ft 497 kts 121°
2026-04-25 20:02 51.77425 -2.53412 40200 ft 497 kts 121°
2026-04-25 20:02 51.74012 -2.43679 40202 ft 498 kts 121°
2026-04-25 20:03 51.70596 -2.33977 40202 ft 498 kts 121°
2026-04-25 20:03 51.67165 -2.24267 40204 ft 498 kts 121°
2026-04-25 20:04 51.63754 -2.14652 40208 ft 498 kts 121°
2026-04-25 20:04 51.60314 -2.04993 40214 ft 498 kts 121°
2026-04-25 20:05 51.56865 -1.95345 40223 ft 498 kts 121°
2026-04-25 20:05 51.53404 -1.85700 40208 ft 499 kts 121°
2026-04-25 20:06 51.50500 -1.77635 40210 ft 499 kts 121°
2026-04-25 20:06 51.47059 -1.67945 40214 ft 500 kts 117°
2026-04-25 20:07 51.44021 -1.57924 40220 ft 500 kts 116°
2026-04-25 20:07 51.41059 -1.47836 40224 ft 500 kts 116°
2026-04-25 20:08 51.38104 -1.37765 40221 ft 500 kts 116°
2026-04-25 20:08 51.35149 -1.27766 40220 ft 501 kts 116°
2026-04-25 20:09 51.31713 -1.18105 40130 ft 500 kts 123°
2026-04-25 20:09 51.29825 -1.13444 39889 ft 499 kts 126°
2026-04-25 20:09 51.27792 -1.08967 39643 ft 498 kts 128°
2026-04-25 20:10 51.26364 -1.06002 39499 ft 498 kts 129°
2026-04-25 20:10 51.23531 -1.00241 39196 ft 498 kts 129°
2026-04-25 20:10 51.21399 -0.95901 38962 ft 498 kts 129°
2026-04-25 20:10 51.19276 -0.91534 38702 ft 498 kts 129°
2026-04-25 20:11 51.17166 -0.87153 38418 ft 498 kts 129°
2026-04-25 20:11 51.15067 -0.82764 38219 ft 499 kts 128°
2026-04-25 20:11 51.10862 -0.73945 38212 ft 500 kts 128°
2026-04-25 20:12 51.06685 -0.65197 38043 ft 499 kts 129°
2026-04-25 20:12 51.04726 -0.60647 37761 ft 500 kts 123°
2026-04-25 20:12 51.03481 -0.57548 37593 ft 501 kts 123°
2026-04-25 20:13 51.01006 -0.51264 37238 ft 502 kts 122°
2026-04-25 20:13 50.99181 -0.46571 36957 ft 503 kts 122°
2026-04-25 20:13 50.97337 -0.41818 36683 ft 504 kts 122°
2026-04-25 20:13 50.95494 -0.37076 36428 ft 504 kts 122°
2026-04-25 20:14 50.93676 -0.32410 36170 ft 505 kts 122°
2026-04-25 20:14 50.91805 -0.27626 35912 ft 505 kts 122°
2026-04-25 20:14 50.89970 -0.22946 35661 ft 506 kts 122°
2026-04-25 20:14 50.88086 -0.18155 35409 ft 506 kts 122°
2026-04-25 20:15 50.86275 -0.13560 35161 ft 507 kts 122°
2026-04-25 20:15 50.84428 -0.08880 34911 ft 508 kts 122°
2026-04-25 20:15 50.82551 -0.04136 34676 ft 509 kts 122°
2026-04-25 20:15 50.80685 0.00574 34471 ft 509 kts 122°
2026-04-25 20:16 50.78789 0.05352 34217 ft 509 kts 122°
2026-04-25 20:16 50.76789 0.09960 33934 ft 509 kts 129°
2026-04-25 20:16 50.74401 0.14076 33670 ft 509 kts 139°
2026-04-25 20:16 50.71761 0.17784 33386 ft 509 kts 140°
2026-04-25 20:17 50.69037 0.21378 33137 ft 511 kts 142°
2026-04-25 20:17 50.66270 0.24910 32884 ft 512 kts 142°
2026-04-25 20:17 50.63452 0.28460 32611 ft 513 kts 142°
2026-04-25 20:17 50.60657 0.31972 32343 ft 515 kts 142°
2026-04-25 20:18 50.57856 0.35500 32076 ft 516 kts 142°
2026-04-25 20:18 50.55060 0.39026 31826 ft 515 kts 142°
2026-04-25 20:18 50.52278 0.42545 31563 ft 514 kts 142°
2026-04-25 20:18 50.49530 0.46026 31317 ft 513 kts 142°
2026-04-25 20:19 50.46763 0.49529 31073 ft 510 kts 142°
2026-04-25 20:19 50.44009 0.53021 30827 ft 507 kts 142°
2026-04-25 20:19 50.41263 0.56489 30580 ft 506 kts 142°
2026-04-25 20:19 50.38527 0.59934 30287 ft 503 kts 142°
2026-04-25 20:20 50.35821 0.63336 29745 ft 494 kts 142°
2026-04-25 20:20 50.33156 0.66681 29140 ft 487 kts 142°
2026-04-25 20:20 50.30532 0.69971 28541 ft 480 kts 142°
2026-04-25 20:20 50.27940 0.73215 27941 ft 474 kts 142°
2026-04-25 20:21 50.25383 0.76411 27382 ft 468 kts 142°
2026-04-25 20:21 50.22852 0.79569 26790 ft 463 kts 142°
2026-04-25 20:21 50.20338 0.82703 26371 ft 463 kts 142°
2026-04-25 20:21 50.17872 0.85774 26234 ft 440 kts 142°
2026-04-25 20:22 50.15511 0.88714 26239 ft 431 kts 142°
2026-04-25 20:22 50.13916 0.90692 26241 ft 433 kts 142°
2026-04-25 20:22 50.10899 0.94433 25576 ft 411 kts 142°
2026-04-25 20:22 50.08634 0.97235 24860 ft 419 kts 142°
2026-04-25 20:23 50.06291 1.00073 24357 ft 423 kts 145°
2026-04-25 20:23 50.03723 1.02212 23913 ft 418 kts 162°
2026-04-25 20:23 50.00939 1.03067 23421 ft 411 kts 178°
2026-04-25 20:23 49.98110 1.03246 22902 ft 404 kts 181°
2026-04-25 20:24 49.95311 1.03327 22391 ft 402 kts 181°
2026-04-25 20:24 49.92532 1.03386 21888 ft 398 kts 181°
2026-04-25 20:24 49.89769 1.03437 21398 ft 396 kts 181°
2026-04-25 20:24 49.87032 1.03482 20919 ft 393 kts 181°
2026-04-25 20:25 49.84310 1.03522 20444 ft 390 kts 181°
2026-04-25 20:25 49.81585 1.03555 19965 ft 391 kts 181°
2026-04-25 20:25 49.78877 1.03581 19512 ft 386 kts 181°
2026-04-25 20:25 49.76213 1.03603 19089 ft 381 kts 181°
2026-04-25 20:26 49.73577 1.03620 18668 ft 377 kts 181°
2026-04-25 20:26 49.70963 1.03624 18210 ft 375 kts 181°
2026-04-25 20:26 49.68361 1.03622 17724 ft 373 kts 181°
2026-04-25 20:26 49.65780 1.03618 17254 ft 370 kts 181°
2026-04-25 20:27 49.63214 1.03611 16789 ft 367 kts 181°
2026-04-25 20:27 49.60668 1.03600 16329 ft 365 kts 181°
2026-04-25 20:27 49.58143 1.03588 15881 ft 362 kts 181°
2026-04-25 20:27 49.55630 1.03572 15429 ft 357 kts 181°
2026-04-25 20:28 49.53228 1.03558 15004 ft 335 kts 181°
2026-04-25 20:28 49.50942 1.03544 14592 ft 325 kts 181°
2026-04-25 20:28 49.48709 1.03525 14170 ft 318 kts 181°
2026-04-25 20:28 49.46512 1.03504 13726 ft 315 kts 181°
2026-04-25 20:29 49.44330 1.03521 13249 ft 313 kts 178°
2026-04-25 20:29 49.42215 1.04124 12782 ft 310 kts 161°
2026-04-25 20:29 49.40332 1.05713 12325 ft 310 kts 140°
2026-04-25 20:29 49.39032 1.08299 11882 ft 306 kts 113°
2026-04-25 20:30 49.38341 1.11349 11435 ft 303 kts 105°
2026-04-25 20:30 49.37552 1.14320 10997 ft 302 kts 123°
2026-04-25 20:30 49.36351 1.16949 10558 ft 300 kts 124°
2026-04-25 20:30 49.35194 1.19596 10271 ft 297 kts 122°
2026-04-25 20:31 49.34113 1.22291 10209 ft 297 kts 120°
2026-04-25 20:31 49.33107 1.25057 10209 ft 296 kts 117°
2026-04-25 20:31 49.32192 1.27879 10210 ft 296 kts 114°
2026-04-25 20:31 49.31414 1.30794 10209 ft 295 kts 106°
2026-04-25 20:32 49.31017 1.33874 10214 ft 294 kts 96°
2026-04-25 20:32 49.30821 1.36992 10210 ft 295 kts 93°
2026-04-25 20:32 49.30674 1.40129 10210 ft 295 kts 93°
2026-04-25 20:32 49.30542 1.43263 10208 ft 295 kts 92°
2026-04-25 20:33 49.30416 1.46399 10214 ft 295 kts 92°
2026-04-25 20:33 49.30292 1.49532 10209 ft 295 kts 92°
2026-04-25 20:33 49.30170 1.52665 10212 ft 295 kts 92°
2026-04-25 20:33 49.30088 1.54782 10211 ft 295 kts 92°
2026-04-25 20:34 49.29928 1.58934 10213 ft 295 kts 92°
2026-04-25 20:34 49.29792 1.62073 10208 ft 295 kts 93°
2026-04-25 20:34 49.29650 1.65203 10209 ft 295 kts 93°
2026-04-25 20:34 49.29510 1.68294 10213 ft 295 kts 93°
2026-04-25 20:35 49.29415 1.70377 10210 ft 295 kts 93°
2026-04-25 20:35 49.28765 1.74438 10076 ft 295 kts 117°
2026-04-25 20:35 49.27438 1.76764 9732 ft 293 kts 144°
2026-04-25 20:35 49.25641 1.78237 9480 ft 294 kts 156°
2026-04-25 20:36 49.23763 1.79480 9261 ft 293 kts 157°
2026-04-25 20:36 49.21888 1.80705 9203 ft 293 kts 156°
2026-04-25 20:36 49.20024 1.81934 9061 ft 285 kts 156°
2026-04-25 20:36 49.18221 1.83135 8651 ft 288 kts 156°
2026-04-25 20:37 49.16369 1.84374 8403 ft 290 kts 156°
2026-04-25 20:37 49.14529 1.85600 8265 ft 288 kts 156°
2026-04-25 20:37 49.12725 1.86789 8170 ft 275 kts 156°
2026-04-25 20:37 49.11012 1.87918 8033 ft 263 kts 156°
2026-04-25 20:38 49.09355 1.89012 7785 ft 256 kts 156°
2026-04-25 20:38 49.07737 1.90080 7538 ft 252 kts 156°
2026-04-25 20:38 49.06135 1.91137 7304 ft 251 kts 156°
2026-04-25 20:38 49.04529 1.92198 7073 ft 251 kts 156°
2026-04-25 20:39 49.02958 1.93235 6866 ft 243 kts 155°
2026-04-25 20:39 49.01404 1.94261 6509 ft 244 kts 155°
2026-04-25 20:39 48.99908 1.95461 6116 ft 243 kts 140°
2026-04-25 20:39 48.99512 1.96027 5993 ft 241 kts 130°
2026-04-25 20:40 48.98027 1.99643 5364 ft 241 kts 117°
2026-04-25 20:40 48.97243 2.01889 5077 ft 239 kts 115°
2026-04-25 20:40 48.96775 2.04226 5022 ft 224 kts 97°
2026-04-25 20:40 48.96662 2.06528 5043 ft 214 kts 87°
2026-04-25 20:41 48.96745 2.08776 5035 ft 213 kts 84°
2026-04-25 20:41 48.96867 2.11034 5022 ft 215 kts 83°
2026-04-25 20:41 48.96992 2.13297 5022 ft 215 kts 83°
2026-04-25 20:41 48.97112 2.15563 5020 ft 215 kts 83°
2026-04-25 20:42 48.97227 2.17815 5019 ft 213 kts 84°
2026-04-25 20:42 48.97340 2.20058 5013 ft 208 kts 83°
2026-04-25 20:42 48.97446 2.22161 4913 ft 193 kts 83°
2026-04-25 20:42 48.97553 2.24143 4650 ft 190 kts 82°
2026-04-25 20:43 48.97663 2.26154 4344 ft 190 kts 82°
2026-04-25 20:43 48.97770 2.28161 4035 ft 190 kts 83°
2026-04-25 20:43 48.97868 2.30000 3788 ft 189 kts 83°
2026-04-25 20:43 48.97975 2.31989 3529 ft 188 kts 82°
2026-04-25 20:44 48.98081 2.33963 3289 ft 187 kts 83°
2026-04-25 20:44 48.98186 2.35929 3035 ft 186 kts 83°
2026-04-25 20:44 48.98290 2.37880 2788 ft 185 kts 83°
2026-04-25 20:44 48.98394 2.39815 2535 ft 182 kts 83°
2026-04-25 20:45 48.98494 2.41692 2303 ft 170 kts 83°
2026-04-25 20:45 48.98586 2.43425 2083 ft 159 kts 83°
2026-04-25 20:45 48.98673 2.45035 1873 ft 146 kts 83°
2026-04-25 20:45 48.98751 2.46501 1694 ft 133 kts 82°
2026-04-25 20:46 48.98824 2.47854 1493 ft 123 kts 82°
2026-04-25 20:46 48.98893 2.49127 1347 ft 120 kts 83°
2026-04-25 20:46 48.98960 2.50401 1184 ft 121 kts 83°
2026-04-25 20:46 48.99028 2.51673 1001 ft 120 kts 81°
2026-04-25 20:47 48.99095 2.52951 841 ft 123 kts 82°
2026-04-25 20:47 48.99168 2.54254 672 ft 123 kts 81°
2026-04-25 20:47 48.99231 2.55541 512 ft 121 kts 83°
2026-04-25 20:47 48.99305 2.56819 380 ft 122 kts 80°
2026-04-25 20:48 48.99371 2.57946 364 ft 77 kts 86°
2026-04-25 20:48 48.99397 2.58429 364 ft 33 kts 78°
2026-04-25 20:48 48.99456 2.58656 367 ft 21 kts 65°
2026-04-25 20:48 48.99510 2.58834 368 ft 16 kts 65°
2026-04-25 20:49 48.99559 2.58993 366 ft 14 kts 65°
2026-04-25 20:49 48.99599 2.59143 368 ft 17 kts 75°
2026-04-25 20:49 48.99614 2.59330 369 ft 19 kts 85°
2026-04-25 20:49 48.99623 2.59499 365 ft 17 kts 85°
2026-04-25 20:50 48.99628 2.59599 368 ft 5 kts 82°
2026-04-25 20:50 48.99654 2.59662 369 ft 9 kts 39°
2026-04-25 20:50 48.99722 2.59677 365 ft 12 kts 352°
2026-04-25 20:50 48.99810 2.59666 363 ft 12 kts 356°
2026-04-25 20:51 48.99902 2.59658 367 ft 9 kts 357°
2026-04-25 20:51 48.99909 2.59658 366 ft 1 kts 356°
2026-04-25 20:51 48.99932 2.59656 364 ft 6 kts 356°
2026-04-25 20:51 48.99990 2.59651 366 ft 11 kts 357°
2026-04-25 20:52 49.00058 2.59639 366 ft 5 kts 340°
2026-04-25 20:52 49.00072 2.59612 367 ft 6 kts 297°
2026-04-25 20:52 49.00073 2.59471 365 ft 14 kts 265°
2026-04-25 20:52 49.00065 2.59318 366 ft 14 kts 265°
2026-04-25 20:53 49.00055 2.59142 364 ft 19 kts 265°
2026-04-25 20:53 49.00045 2.58960 364 ft 15 kts 265°
2026-04-25 20:53 49.00037 2.58809 360 ft 9 kts 265°
2026-04-25 20:53 49.00030 2.58682 362 ft 15 kts 265°
2026-04-25 20:54 49.00022 2.58515 364 ft 15 kts 265°
2026-04-25 20:54 49.00013 2.58344 366 ft 18 kts 265°
2026-04-25 20:54 49.00005 2.58190 365 ft 14 kts 265°
2026-04-25 20:54 48.99996 2.58036 362 ft 9 kts 265°
2026-04-25 20:55 48.99989 2.57916 367 ft 10 kts 265°
2026-04-25 20:55 48.99985 2.57815 366 ft 6 kts 271°
2026-04-25 20:55 48.99991 2.57776 368 ft 0 kts 290°
2026-04-25 20:55 48.99993 2.57766 367 ft 0 kts 290°
2026-04-25 20:56 48.99997 2.57757 365 ft 3 kts 300°
2026-04-25 20:57 49.00042 2.57708 367 ft 10 kts 317°
2026-04-25 20:57 49.00054 2.57602 363 ft 11 kts 266°
2026-04-25 20:57 49.00057 2.57554 362 ft 3 kts 295°
2026-04-25 20:57 49.00077 2.57537 368 ft 5 kts 336°
2026-04-25 20:58 49.00105 2.57529 361 ft 0 kts 353°
2026-04-25 20:58 49.00116 2.57528 361 ft 3 kts 356°
2026-04-25 20:58 49.00134 2.57526 368 ft 0 kts 356°